Time,TemperatureF,DewpointF,PressureIn,WindDirection,WindDirectionDegrees,WindSpeedMPH,WindSpeedGustMPH,Humidity,HourlyPrecipIn,Conditions,Clouds,dailyrainin,SoftwareType,DateUTC
2013-04-06 00:00:00,56.3,35.7,29.97,SE,135,7.8,8.5,46,0.00,,,0.00,WUHU216HW,2013-04-06 05:00:00,
2013-04-06 00:02:00,56.5,35.9,29.97,SSE,158,8.5,8.5,46,0.00,,,0.00,WUHU216HW,2013-04-06 05:02:00,
2013-04-06 00:03:00,56.5,35.9,29.97,SSE,158,4.5,9.2,46,0.00,,,0.00,WUHU216HW,2013-04-06 05:03:00,
2013-04-06 00:05:00,56.5,35.9,29.97,South,180,6.9,9.4,46,0.00,,,0.00,WUHU216HW,2013-04-06 05:05:00,
2013-04-06 00:07:00,56.5,35.9,29.97,SSE,158,8.9,9.8,46,0.00,,,0.00,WUHU216HW,2013-04-06 05:07:00,
2013-04-06 00:08:00,56.5,35.9,29.97,SSE,158,8.7,9.8,46,0.00,,,0.00,WUHU216HW,2013-04-06 05:08:00,
2013-04-06 00:10:00,56.7,36.1,29.97,SSE,158,10.5,11.0,46,0.00,,,0.00,WUHU216HW,2013-04-06 05:10:00,
2013-04-06 00:11:00,56.9,36.3,29.97,SSE,158,12.3,12.3,46,0.00,,,0.00,WUHU216HW,2013-04-06 05:11:00,
2013-04-06 00:12:00,56.9,36.3,29.97,SSE,158,12.3,12.3,46,0.00,,,0.00,WUHU216HW,2013-04-06 05:12:00,
2013-04-06 00:13:00,56.9,36.3,29.97,South,180,9.6,12.3,46,0.00,,,0.00,WUHU216HW,2013-04-06 05:13:00,
2013-04-06 00:15:00,56.9,36.3,29.97,South,180,6.9,12.3,46,0.00,,,0.00,WUHU216HW,2013-04-06 05:15:00,
2013-04-06 00:17:00,56.9,36.3,29.97,South,180,8.9,12.3,46,0.00,,,0.00,WUHU216HW,2013-04-06 05:17:00,
2013-04-06 00:18:00,56.9,36.8,29.97,South,180,6.3,12.3,47,0.00,,,0.00,WUHU216HW,2013-04-06 05:18:00,
2013-04-06 00:19:00,56.9,36.3,29.97,South,180,8.7,12.3,46,0.00,,,0.00,WUHU216HW,2013-04-06 05:19:00,
2013-04-06 00:21:00,56.9,36.3,29.97,South,180,8.5,12.3,46,0.00,,,0.00,WUHU216HW,2013-04-06 05:21:00,
2013-04-06 00:22:00,56.9,36.3,29.97,South,180,6.0,12.1,46,0.00,,,0.00,WUHU216HW,2013-04-06 05:22:00,
2013-04-06 00:23:00,56.9,36.3,29.97,South,180,6.0,12.1,46,0.00,,,0.00,WUHU216HW,2013-04-06 05:23:00,
2013-04-06 00:24:00,56.9,36.8,29.97,South,180,7.6,12.1,47,0.00,,,0.00,WUHU216HW,2013-04-06 05:24:00,
2013-04-06 00:25:00,56.7,36.6,29.97,SSE,158,7.2,12.1,47,0.00,,,0.00,WUHU216HW,2013-04-06 05:25:00,
2013-04-06 00:28:00,56.7,36.1,29.97,SSE,158,8.7,12.1,46,0.00,,,0.00,WUHU216HW,2013-04-06 05:28:00,
2013-04-06 00:29:00,56.7,36.6,29.97,SSE,158,8.3,12.5,47,0.00,,,0.00,WUHU216HW,2013-04-06 05:29:00,
2013-04-06 00:30:00,56.5,36.5,29.97,SSE,158,11.9,12.5,47,0.00,,,0.00,WUHU216HW,2013-04-06 05:30:00,
2013-04-06 00:32:00,56.7,36.6,29.97,SSE,158,8.7,12.5,47,0.00,,,0.00,WUHU216HW,2013-04-06 05:32:00,
2013-04-06 00:33:00,56.7,36.6,29.97,SSE,158,8.7,12.5,47,0.00,,,0.00,WUHU216HW,2013-04-06 05:33:00,
2013-04-06 00:35:00,56.7,36.6,29.97,SSE,158,9.4,12.5,47,0.00,,,0.00,WUHU216HW,2013-04-06 05:35:00,
2013-04-06 00:36:00,56.7,36.6,29.97,SE,135,10.5,12.5,47,0.00,,,0.00,WUHU216HW,2013-04-06 05:36:00,
2013-04-06 00:37:00,56.7,36.6,29.97,SSE,158,10.1,12.5,47,0.00,,,0.00,WUHU216HW,2013-04-06 05:37:00,
2013-04-06 00:38:00,56.7,36.6,29.97,SSE,158,10.1,12.5,47,0.00,,,0.00,WUHU216HW,2013-04-06 05:38:00,
2013-04-06 00:39:00,56.7,36.6,29.97,South,180,8.5,12.3,47,0.00,,,0.00,WUHU216HW,2013-04-06 05:39:00,
2013-04-06 00:41:00,56.7,36.6,29.97,SSE,158,11.4,13.4,47,0.00,,,0.00,WUHU216HW,2013-04-06 05:41:00,
2013-04-06 00:43:00,56.7,36.6,29.97,South,180,10.5,13.4,47,0.00,,,0.00,WUHU216HW,2013-04-06 05:43:00,
2013-04-06 00:45:00,56.9,37.4,29.97,South,180,6.0,13.4,48,0.00,,,0.00,WUHU216HW,2013-04-06 05:45:00,
2013-04-06 00:47:00,56.7,37.2,29.97,SSE,158,11.9,13.4,48,0.00,,,0.00,WUHU216HW,2013-04-06 05:47:00,
2013-04-06 00:48:00,56.7,37.2,29.97,SSE,158,11.0,13.4,48,0.00,,,0.00,WUHU216HW,2013-04-06 05:48:00,
2013-04-06 00:51:00,56.7,37.2,29.96,SSE,158,9.2,13.4,48,0.00,,,0.00,WUHU216HW,2013-04-06 05:51:00,
2013-04-06 00:53:00,56.5,37.6,29.97,SSE,158,6.9,12.8,49,0.00,,,0.00,WUHU216HW,2013-04-06 05:53:00,
2013-04-06 00:54:00,56.5,37.6,29.97,SSE,158,6.9,12.8,49,0.00,,,0.00,WUHU216HW,2013-04-06 05:54:00,
2013-04-06 00:56:00,56.3,37.5,29.97,SSE,158,6.5,12.8,49,0.00,,,0.00,WUHU216HW,2013-04-06 05:56:00,
2013-04-06 00:58:00,56.3,37.5,29.97,SSE,158,7.4,12.8,49,0.00,,,0.00,WUHU216HW,2013-04-06 05:58:00,
2013-04-06 00:59:00,56.3,37.5,29.97,SSE,158,7.4,12.8,49,0.00,,,0.00,WUHU216HW,2013-04-06 05:59:00,
2013-04-06 01:02:00,56.2,37.8,29.96,SSE,158,8.5,10.3,50,0.00,,,0.00,WUHU216HW,2013-04-06 06:02:00,
2013-04-06 01:03:00,56.2,37.8,29.96,South,180,8.1,10.3,50,0.00,,,0.00,WUHU216HW,2013-04-06 06:03:00,
2013-04-06 01:04:00,56.2,37.8,29.96,South,180,8.1,10.3,50,0.00,,,0.00,WUHU216HW,2013-04-06 06:04:00,
2013-04-06 01:05:00,56.2,37.8,29.96,SSW,203,6.7,10.1,50,0.00,,,0.00,WUHU216HW,2013-04-06 06:05:00,
2013-04-06 01:06:00,56.0,37.6,29.96,SSE,158,6.9,10.1,50,0.00,,,0.00,WUHU216HW,2013-04-06 06:06:00,
2013-04-06 01:08:00,56.0,37.6,29.96,SE,135,7.2,10.1,50,0.00,,,0.00,WUHU216HW,2013-04-06 06:08:00,
2013-04-06 01:09:00,56.0,37.6,29.96,SE,135,7.2,10.1,50,0.00,,,0.00,WUHU216HW,2013-04-06 06:09:00,
2013-04-06 01:11:00,55.8,37.4,29.96,SSE,158,6.9,10.1,50,0.00,,,0.00,WUHU216HW,2013-04-06 06:11:00,
2013-04-06 01:13:00,55.8,37.4,29.96,SSE,158,8.5,9.8,50,0.00,,,0.00,WUHU216HW,2013-04-06 06:13:00,
2013-04-06 01:14:00,55.8,37.4,29.96,SSE,158,8.5,9.8,50,0.00,,,0.00,WUHU216HW,2013-04-06 06:14:00,
2013-04-06 01:16:00,55.8,37.4,29.96,SSE,158,8.1,9.8,50,0.00,,,0.00,WUHU216HW,2013-04-06 06:16:00,
2013-04-06 01:18:00,55.8,37.9,29.96,South,180,6.9,9.8,51,0.00,,,0.00,WUHU216HW,2013-04-06 06:18:00,
2013-04-06 01:19:00,55.8,37.9,29.96,South,180,6.9,9.8,51,0.00,,,0.00,WUHU216HW,2013-04-06 06:19:00,
2013-04-06 01:22:00,55.8,37.9,29.96,South,180,7.6,9.6,51,0.00,,,0.00,WUHU216HW,2013-04-06 06:22:00,
2013-04-06 01:23:00,55.8,37.9,29.96,SSE,158,9.2,12.1,51,0.00,,,0.00,WUHU216HW,2013-04-06 06:23:00,
2013-04-06 01:24:00,55.8,37.9,29.96,SSE,158,9.2,12.1,51,0.00,,,0.00,WUHU216HW,2013-04-06 06:24:00,
2013-04-06 01:25:00,55.8,37.9,29.96,South,180,6.9,12.1,51,0.00,,,0.00,WUHU216HW,2013-04-06 06:25:00,
2013-04-06 01:27:00,55.8,37.9,29.96,SSE,158,7.2,12.1,51,0.00,,,0.00,WUHU216HW,2013-04-06 06:27:00,
2013-04-06 01:29:00,55.6,37.7,29.96,SSE,158,8.3,12.1,51,0.00,,,0.00,WUHU216HW,2013-04-06 06:29:00,
2013-04-06 01:30:00,55.6,37.7,29.96,SSE,158,6.9,12.1,51,0.00,,,0.00,WUHU216HW,2013-04-06 06:30:00,
2013-04-06 01:33:00,55.4,38.0,29.95,SSE,158,7.6,12.1,52,0.00,,,0.00,WUHU216HW,2013-04-06 06:33:00,
2013-04-06 01:34:00,55.4,38.0,29.96,SSE,158,4.9,9.6,52,0.00,,,0.00,WUHU216HW,2013-04-06 06:34:00,
2013-04-06 01:35:00,55.4,38.0,29.96,SSE,158,4.9,9.6,52,0.00,,,0.00,WUHU216HW,2013-04-06 06:35:00,
2013-04-06 01:38:00,55.4,38.0,29.96,SSE,158,7.6,9.6,52,0.00,,,0.00,WUHU216HW,2013-04-06 06:38:00,
2013-04-06 01:40:00,55.4,38.0,29.95,SSE,158,6.0,9.6,52,0.00,,,0.00,WUHU216HW,2013-04-06 06:40:00,
2013-04-06 01:41:00,55.4,38.5,29.95,SSE,158,6.3,8.9,53,0.00,,,0.00,WUHU216HW,2013-04-06 06:41:00,
2013-04-06 01:42:00,55.3,37.9,29.95,South,180,7.4,9.4,52,0.00,,,0.00,WUHU216HW,2013-04-06 06:42:00,
2013-04-06 01:45:00,55.4,38.5,29.95,SSE,158,6.7,9.4,53,0.00,,,0.00,WUHU216HW,2013-04-06 06:45:00,
2013-04-06 01:46:00,55.3,37.9,29.95,South,180,6.9,9.4,52,0.00,,,0.00,WUHU216HW,2013-04-06 06:46:00,
2013-04-06 01:50:00,55.3,38.4,29.96,SE,135,6.3,9.4,53,0.00,,,0.00,WUHU216HW,2013-04-06 06:50:00,
2013-04-06 01:51:00,55.3,38.4,29.96,SSE,158,7.2,9.4,53,0.00,,,0.00,WUHU216HW,2013-04-06 06:51:00,
2013-04-06 01:53:00,55.3,38.4,29.95,SSE,158,7.6,8.1,53,0.00,,,0.00,WUHU216HW,2013-04-06 06:53:00,
2013-04-06 01:54:00,55.4,38.5,29.95,South,180,7.2,8.5,53,0.00,,,0.00,WUHU216HW,2013-04-06 06:54:00,
2013-04-06 01:55:00,55.4,38.5,29.95,South,180,7.2,8.5,53,0.00,,,0.00,WUHU216HW,2013-04-06 06:55:00,
2013-04-06 01:58:00,55.4,38.5,29.95,South,180,7.6,11.2,53,0.00,,,0.00,WUHU216HW,2013-04-06 06:58:00,
2013-04-06 02:00:00,55.4,38.5,29.95,South,180,9.8,11.2,53,0.00,,,0.00,WUHU216HW,2013-04-06 07:00:00,
2013-04-06 02:01:00,55.4,38.5,29.95,SSE,158,6.7,11.2,53,0.00,,,0.00,WUHU216HW,2013-04-06 07:01:00,
2013-04-06 02:03:00,55.4,38.5,29.95,South,180,6.7,11.2,53,0.00,,,0.00,WUHU216HW,2013-04-06 07:03:00,
2013-04-06 02:04:00,55.4,38.5,29.95,SSE,158,8.7,11.2,53,0.00,,,0.00,WUHU216HW,2013-04-06 07:04:00,
2013-04-06 02:05:00,55.4,38.5,29.95,SSE,158,8.7,11.2,53,0.00,,,0.00,WUHU216HW,2013-04-06 07:05:00,
2013-04-06 02:07:00,55.3,38.8,29.95,SSE,158,8.3,11.0,54,0.00,,,0.00,WUHU216HW,2013-04-06 07:07:00,
2013-04-06 02:08:00,55.3,38.4,29.95,South,180,10.5,11.0,53,0.00,,,0.00,WUHU216HW,2013-04-06 07:08:00,
2013-04-06 02:11:00,55.3,38.8,29.94,SE,135,8.1,11.0,54,0.00,,,0.00,WUHU216HW,2013-04-06 07:11:00,
2013-04-06 02:13:00,55.3,38.4,29.95,South,180,8.9,10.5,53,0.00,,,0.00,WUHU216HW,2013-04-06 07:13:00,
2013-04-06 02:14:00,55.4,38.5,29.95,South,180,10.1,10.5,53,0.00,,,0.00,WUHU216HW,2013-04-06 07:14:00,
2013-04-06 02:16:00,55.4,38.5,29.95,South,180,6.5,10.5,53,0.00,,,0.00,WUHU216HW,2013-04-06 07:16:00,
2013-04-06 02:17:00,55.4,38.5,29.95,South,180,8.5,11.4,53,0.00,,,0.00,WUHU216HW,2013-04-06 07:17:00,
2013-04-06 02:18:00,55.4,38.5,29.94,SSE,158,7.6,11.4,53,0.00,,,0.00,WUHU216HW,2013-04-06 07:18:00,
2013-04-06 02:20:00,55.4,38.5,29.94,SE,135,9.6,11.4,53,0.00,,,0.00,WUHU216HW,2013-04-06 07:20:00,
2013-04-06 02:21:00,55.4,38.5,29.94,SE,135,9.6,11.4,53,0.00,,,0.00,WUHU216HW,2013-04-06 07:21:00,
2013-04-06 02:22:00,55.4,38.5,29.94,SSE,158,9.6,11.4,53,0.00,,,0.00,WUHU216HW,2013-04-06 07:22:00,
2013-04-06 02:25:00,55.4,38.5,29.94,SSE,158,7.4,11.4,53,0.00,,,0.00,WUHU216HW,2013-04-06 07:25:00,
2013-04-06 02:26:00,55.4,38.5,29.94,SSE,158,9.2,11.4,53,0.00,,,0.00,WUHU216HW,2013-04-06 07:26:00,
2013-04-06 02:28:00,55.6,38.7,29.94,SSE,158,8.9,12.5,53,0.00,,,0.00,WUHU216HW,2013-04-06 07:28:00,
2013-04-06 02:30:00,55.6,38.2,29.94,SSE,158,11.4,12.5,52,0.00,,,0.00,WUHU216HW,2013-04-06 07:30:00,
2013-04-06 02:31:00,55.8,38.3,29.94,SSE,158,11.9,14.5,52,0.00,,,0.00,WUHU216HW,2013-04-06 07:31:00,
2013-04-06 02:32:00,55.8,38.3,29.94,SSE,158,11.9,14.5,52,0.00,,,0.00,WUHU216HW,2013-04-06 07:32:00,
2013-04-06 02:34:00,55.8,37.9,29.94,SSE,158,11.0,14.5,51,0.00,,,0.00,WUHU216HW,2013-04-06 07:34:00,
2013-04-06 02:37:00,56.0,38.1,29.94,SE,135,13.9,14.5,51,0.00,,,0.00,WUHU216HW,2013-04-06 07:37:00,
2013-04-06 02:38:00,55.8,38.3,29.93,South,180,11.9,14.5,52,0.00,,,0.00,WUHU216HW,2013-04-06 07:38:00,
2013-04-06 02:42:00,55.8,38.3,29.94,SSE,158,9.2,14.1,52,0.00,,,0.00,WUHU216HW,2013-04-06 07:42:00,
2013-04-06 02:44:00,55.8,37.9,29.94,South,180,11.4,13.9,51,0.00,,,0.00,WUHU216HW,2013-04-06 07:44:00,
2013-04-06 02:46:00,55.8,37.9,29.94,SSE,158,11.4,13.9,51,0.00,,,0.00,WUHU216HW,2013-04-06 07:46:00,
2013-04-06 02:47:00,55.8,37.9,29.94,SSE,158,8.9,13.4,51,0.00,,,0.00,WUHU216HW,2013-04-06 07:47:00,
2013-04-06 02:50:00,55.8,38.3,29.93,South,180,9.8,13.4,52,0.00,,,0.00,WUHU216HW,2013-04-06 07:50:00,
2013-04-06 02:52:00,55.6,38.2,29.93,SSE,158,9.6,13.4,52,0.00,,,0.00,WUHU216HW,2013-04-06 07:52:00,
2013-04-06 02:53:00,55.6,38.2,29.93,SSE,158,9.8,13.4,52,0.00,,,0.00,WUHU216HW,2013-04-06 07:53:00,
2013-04-06 02:55:00,55.6,38.2,29.93,SSE,158,7.2,13.2,52,0.00,,,0.00,WUHU216HW,2013-04-06 07:55:00,
2013-04-06 02:57:00,55.6,38.2,29.93,South,180,6.7,11.6,52,0.00,,,0.00,WUHU216HW,2013-04-06 07:57:00,
2013-04-06 02:58:00,55.6,38.2,29.93,South,180,8.5,11.6,52,0.00,,,0.00,WUHU216HW,2013-04-06 07:58:00,
2013-04-06 02:59:00,55.6,38.2,29.93,South,180,6.3,11.4,52,0.00,,,0.00,WUHU216HW,2013-04-06 07:59:00,
2013-04-06 03:01:00,55.6,38.2,29.93,South,180,8.7,11.4,52,0.00,,,0.00,WUHU216HW,2013-04-06 08:01:00,
2013-04-06 03:02:00,55.6,38.2,29.93,South,180,10.5,11.4,52,0.00,,,0.00,WUHU216HW,2013-04-06 08:02:00,
2013-04-06 03:03:00,55.6,38.2,29.93,South,180,10.5,11.4,52,0.00,,,0.00,WUHU216HW,2013-04-06 08:03:00,
2013-04-06 03:04:00,55.8,38.3,29.93,SSE,158,11.4,11.4,52,0.00,,,0.00,WUHU216HW,2013-04-06 08:04:00,
2013-04-06 03:05:00,55.8,38.3,29.93,SSE,158,8.1,11.4,52,0.00,,,0.00,WUHU216HW,2013-04-06 08:05:00,
2013-04-06 03:07:00,55.6,38.2,29.92,South,180,5.6,11.4,52,0.00,,,0.00,WUHU216HW,2013-04-06 08:07:00,
2013-04-06 03:08:00,55.6,38.2,29.92,South,180,5.6,11.4,52,0.00,,,0.00,WUHU216HW,2013-04-06 08:08:00,
2013-04-06 03:09:00,55.6,38.2,29.93,SSE,158,8.5,11.4,52,0.00,,,0.00,WUHU216HW,2013-04-06 08:09:00,
2013-04-06 03:10:00,55.6,38.2,29.93,SSE,158,7.4,11.4,52,0.00,,,0.00,WUHU216HW,2013-04-06 08:10:00,
2013-04-06 03:13:00,55.6,38.2,29.93,South,180,6.9,11.4,52,0.00,,,0.00,WUHU216HW,2013-04-06 08:13:00,
2013-04-06 03:15:00,55.6,38.2,29.92,SSE,158,9.8,11.4,52,0.00,,,0.00,WUHU216HW,2013-04-06 08:15:00,
2013-04-06 03:16:00,55.6,38.2,29.92,South,180,9.2,13.9,52,0.00,,,0.00,WUHU216HW,2013-04-06 08:16:00,
2013-04-06 03:18:00,55.8,38.3,29.92,SSE,158,12.1,13.9,52,0.00,,,0.00,WUHU216HW,2013-04-06 08:18:00,
2013-04-06 03:22:00,55.8,38.3,29.92,South,180,8.7,13.9,52,0.00,,,0.00,WUHU216HW,2013-04-06 08:22:00,
2013-04-06 03:23:00,55.8,38.3,29.92,South,180,8.7,13.9,52,0.00,,,0.00,WUHU216HW,2013-04-06 08:23:00,
2013-04-06 03:24:00,56.0,38.1,29.92,SSE,158,12.8,13.9,51,0.00,,,0.00,WUHU216HW,2013-04-06 08:24:00,
2013-04-06 03:26:00,56.0,38.1,29.92,SSE,158,8.1,12.8,51,0.00,,,0.00,WUHU216HW,2013-04-06 08:26:00,
2013-04-06 03:27:00,56.0,38.1,29.92,SSE,158,10.5,12.8,51,0.00,,,0.00,WUHU216HW,2013-04-06 08:27:00,
2013-04-06 03:28:00,56.0,38.1,29.92,SSE,158,10.5,12.8,51,0.00,,,0.00,WUHU216HW,2013-04-06 08:28:00,
2013-04-06 03:30:00,56.0,38.5,29.92,South,180,11.0,12.8,52,0.00,,,0.00,WUHU216HW,2013-04-06 08:30:00,
2013-04-06 03:31:00,56.0,38.1,29.91,South,180,16.3,16.3,51,0.00,,,0.00,WUHU216HW,2013-04-06 08:31:00,
2013-04-06 03:33:00,56.2,38.3,29.92,SE,135,7.6,16.3,51,0.00,,,0.00,WUHU216HW,2013-04-06 08:33:00,
2013-04-06 03:34:00,56.2,38.3,29.92,SSE,158,10.7,16.3,51,0.00,,,0.00,WUHU216HW,2013-04-06 08:34:00,
2013-04-06 03:36:00,56.0,38.1,29.91,SSE,158,12.1,16.3,51,0.00,,,0.00,WUHU216HW,2013-04-06 08:36:00,
2013-04-06 03:38:00,56.0,38.1,29.91,South,180,9.8,16.3,51,0.00,,,0.00,WUHU216HW,2013-04-06 08:38:00,
2013-04-06 03:39:00,55.8,37.9,29.91,SSE,158,10.5,16.3,51,0.00,,,0.00,WUHU216HW,2013-04-06 08:39:00,
2013-04-06 03:41:00,55.8,38.3,29.91,SSE,158,9.8,16.3,52,0.00,,,0.00,WUHU216HW,2013-04-06 08:41:00,
2013-04-06 03:42:00,55.8,38.3,29.91,South,180,7.6,12.8,52,0.00,,,0.00,WUHU216HW,2013-04-06 08:42:00,
2013-04-06 03:44:00,55.8,38.3,29.91,SSE,158,9.2,12.8,52,0.00,,,0.00,WUHU216HW,2013-04-06 08:44:00,
2013-04-06 03:45:00,55.8,38.3,29.91,South,180,9.6,12.8,52,0.00,,,0.00,WUHU216HW,2013-04-06 08:45:00,
2013-04-06 03:47:00,55.8,38.3,29.91,SSE,158,10.5,14.5,52,0.00,,,0.00,WUHU216HW,2013-04-06 08:47:00,
2013-04-06 03:48:00,55.8,38.3,29.91,SSE,158,11.2,14.5,52,0.00,,,0.00,WUHU216HW,2013-04-06 08:48:00,
2013-04-06 03:49:00,55.8,38.3,29.91,SSE,158,12.1,14.5,52,0.00,,,0.00,WUHU216HW,2013-04-06 08:49:00,
2013-04-06 03:51:00,55.8,38.3,29.91,SSE,158,8.7,14.5,52,0.00,,,0.00,WUHU216HW,2013-04-06 08:51:00,
2013-04-06 03:54:00,55.8,38.3,29.91,SSE,158,11.6,14.5,52,0.00,,,0.00,WUHU216HW,2013-04-06 08:54:00,
2013-04-06 03:55:00,55.8,38.3,29.91,SSE,158,9.2,14.5,52,0.00,,,0.00,WUHU216HW,2013-04-06 08:55:00,
2013-04-06 03:56:00,55.6,38.2,29.90,SSE,158,12.8,12.8,52,0.00,,,0.00,WUHU216HW,2013-04-06 08:56:00,
2013-04-06 03:59:00,55.6,38.2,29.90,SSE,158,10.5,12.8,52,0.00,,,0.00,WUHU216HW,2013-04-06 08:59:00,
2013-04-06 04:00:00,55.4,38.0,29.90,SSE,158,10.5,12.8,52,0.00,,,0.00,WUHU216HW,2013-04-06 09:00:00,
2013-04-06 04:02:00,55.6,38.2,29.90,SSE,158,11.2,14.5,52,0.00,,,0.00,WUHU216HW,2013-04-06 09:02:00,
2013-04-06 04:03:00,55.6,38.2,29.90,SSE,158,9.4,14.5,52,0.00,,,0.00,WUHU216HW,2013-04-06 09:03:00,
2013-04-06 04:04:00,55.6,38.2,29.90,SSE,158,9.4,14.5,52,0.00,,,0.00,WUHU216HW,2013-04-06 09:04:00,
2013-04-06 04:05:00,55.6,38.2,29.90,SSE,158,10.3,14.5,52,0.00,,,0.00,WUHU216HW,2013-04-06 09:05:00,
2013-04-06 04:07:00,55.6,38.2,29.90,SE,135,8.9,14.5,52,0.00,,,0.00,WUHU216HW,2013-04-06 09:07:00,
2013-04-06 04:08:00,55.6,38.2,29.90,SSE,158,12.8,14.5,52,0.00,,,0.00,WUHU216HW,2013-04-06 09:08:00,
2013-04-06 04:10:00,55.6,38.2,29.90,SSE,158,10.5,14.5,52,0.00,,,0.00,WUHU216HW,2013-04-06 09:10:00,
2013-04-06 04:12:00,55.4,38.0,29.90,SE,135,8.5,13.6,52,0.00,,,0.00,WUHU216HW,2013-04-06 09:12:00,
2013-04-06 04:14:00,55.4,38.0,29.90,SSE,158,13.2,13.6,52,0.00,,,0.00,WUHU216HW,2013-04-06 09:14:00,
2013-04-06 04:15:00,55.4,38.0,29.90,SSE,158,13.2,13.6,52,0.00,,,0.00,WUHU216HW,2013-04-06 09:15:00,
2013-04-06 04:18:00,55.4,38.0,29.90,SE,135,9.8,13.6,52,0.00,,,0.00,WUHU216HW,2013-04-06 09:18:00,
2013-04-06 04:20:00,55.4,38.5,29.90,SSE,158,9.8,13.6,53,0.00,,,0.00,WUHU216HW,2013-04-06 09:20:00,
2013-04-06 04:22:00,55.1,38.2,29.90,SSE,158,8.5,13.6,53,0.00,,,0.00,WUHU216HW,2013-04-06 09:22:00,
2013-04-06 04:23:00,55.1,38.6,29.90,SSE,158,7.6,13.6,54,0.00,,,0.00,WUHU216HW,2013-04-06 09:23:00,
2013-04-06 04:25:00,54.9,38.0,29.90,SSE,158,12.1,13.6,53,0.00,,,0.00,WUHU216HW,2013-04-06 09:25:00,
2013-04-06 04:27:00,54.9,38.0,29.90,SSE,158,12.3,12.3,53,0.00,,,0.00,WUHU216HW,2013-04-06 09:27:00,
2013-04-06 04:29:00,54.9,38.4,29.89,South,180,11.6,12.3,54,0.00,,,0.00,WUHU216HW,2013-04-06 09:29:00,
2013-04-06 04:30:00,54.9,38.4,29.89,South,180,11.6,12.3,54,0.00,,,0.00,WUHU216HW,2013-04-06 09:30:00,
2013-04-06 04:31:00,54.9,38.4,29.90,SSW,203,8.9,12.5,54,0.00,,,0.00,WUHU216HW,2013-04-06 09:31:00,
2013-04-06 04:35:00,54.9,38.4,29.90,SSE,158,8.5,12.8,54,0.00,,,0.00,WUHU216HW,2013-04-06 09:35:00,
2013-04-06 04:37:00,54.7,38.4,29.90,SSE,158,9.4,12.8,54,0.00,,,0.00,WUHU216HW,2013-04-06 09:37:00,
2013-04-06 04:40:00,54.7,38.4,29.90,SSE,158,7.4,12.8,54,0.00,,,0.00,WUHU216HW,2013-04-06 09:40:00,
2013-04-06 04:41:00,54.5,38.2,29.89,SE,135,10.3,12.8,54,0.00,,,0.00,WUHU216HW,2013-04-06 09:41:00,
2013-04-06 04:43:00,54.5,38.6,29.89,SSE,158,7.6,12.8,55,0.00,,,0.00,WUHU216HW,2013-04-06 09:43:00,
2013-04-06 04:46:00,54.4,38.4,29.89,SSE,158,9.8,11.9,55,0.00,,,0.00,WUHU216HW,2013-04-06 09:46:00,
2013-04-06 04:47:00,54.5,38.2,29.89,SSE,158,9.8,12.8,54,0.00,,,0.00,WUHU216HW,2013-04-06 09:47:00,
2013-04-06 04:48:00,54.5,38.6,29.89,SSE,158,7.4,12.8,55,0.00,,,0.00,WUHU216HW,2013-04-06 09:48:00,
2013-04-06 04:51:00,54.5,38.2,29.89,SSE,158,8.5,12.8,54,0.00,,,0.00,WUHU216HW,2013-04-06 09:51:00,
2013-04-06 04:52:00,54.5,38.6,29.89,South,180,8.5,12.8,55,0.00,,,0.00,WUHU216HW,2013-04-06 09:52:00,
2013-04-06 04:53:00,54.4,38.4,29.89,SSE,158,6.7,12.8,55,0.00,,,0.00,WUHU216HW,2013-04-06 09:53:00,
2013-04-06 04:56:00,54.4,38.4,29.89,SSE,158,9.8,12.8,55,0.00,,,0.00,WUHU216HW,2013-04-06 09:56:00,
2013-04-06 04:58:00,54.7,38.8,29.89,SSE,158,9.4,12.1,55,0.00,,,0.00,WUHU216HW,2013-04-06 09:58:00,
2013-04-06 04:59:00,54.7,38.8,29.89,South,180,10.5,12.1,55,0.00,,,0.00,WUHU216HW,2013-04-06 09:59:00,
2013-04-06 05:01:00,54.7,38.8,29.89,SSE,158,9.4,12.1,55,0.00,,,0.00,WUHU216HW,2013-04-06 10:01:00,
2013-04-06 05:03:00,54.5,38.6,29.89,SSE,158,9.8,12.1,55,0.00,,,0.00,WUHU216HW,2013-04-06 10:03:00,
2013-04-06 05:04:00,54.5,38.6,29.89,SSE,158,8.7,12.1,55,0.00,,,0.00,WUHU216HW,2013-04-06 10:04:00,
2013-04-06 05:06:00,54.5,38.6,29.89,South,180,9.4,12.1,55,0.00,,,0.00,WUHU216HW,2013-04-06 10:06:00,
2013-04-06 05:07:00,54.5,38.6,29.89,SSE,158,10.1,12.8,55,0.00,,,0.00,WUHU216HW,2013-04-06 10:07:00,
2013-04-06 05:08:00,54.5,38.6,29.89,South,180,6.9,12.8,55,0.00,,,0.00,WUHU216HW,2013-04-06 10:08:00,
2013-04-06 05:10:00,54.5,38.6,29.88,SSE,158,11.6,12.8,55,0.00,,,0.00,WUHU216HW,2013-04-06 10:10:00,
2013-04-06 05:11:00,54.5,38.6,29.88,South,180,11.4,12.8,55,0.00,,,0.00,WUHU216HW,2013-04-06 10:11:00,
2013-04-06 05:12:00,54.5,38.6,29.88,SSE,158,9.8,12.8,55,0.00,,,0.00,WUHU216HW,2013-04-06 10:12:00,
2013-04-06 05:13:00,54.5,39.1,29.88,SSE,158,11.0,12.8,56,0.00,,,0.00,WUHU216HW,2013-04-06 10:13:00,
2013-04-06 05:16:00,54.4,38.4,29.88,South,180,9.2,12.8,55,0.00,,,0.00,WUHU216HW,2013-04-06 10:16:00,
2013-04-06 05:20:00,54.2,38.8,29.88,SSE,158,9.2,11.4,56,0.00,,,0.00,WUHU216HW,2013-04-06 10:20:00,
2013-04-06 05:21:00,54.2,38.8,29.88,SSE,158,9.2,11.4,56,0.00,,,0.00,WUHU216HW,2013-04-06 10:21:00,
2013-04-06 05:23:00,54.4,39.4,29.88,SSE,158,6.9,11.0,57,0.00,,,0.00,WUHU216HW,2013-04-06 10:23:00,
2013-04-06 05:24:00,54.2,39.3,29.88,SE,135,7.6,10.7,57,0.00,,,0.00,WUHU216HW,2013-04-06 10:24:00,
2013-04-06 05:27:00,54.4,38.9,29.89,SSE,158,11.2,11.2,56,0.00,,,0.00,WUHU216HW,2013-04-06 10:27:00,
2013-04-06 05:31:00,54.2,38.8,29.89,SSE,158,6.9,11.2,56,0.00,,,0.00,WUHU216HW,2013-04-06 10:31:00,
2013-04-06 05:32:00,54.2,38.8,29.89,SSE,158,6.9,11.2,56,0.00,,,0.00,WUHU216HW,2013-04-06 10:32:00,
2013-04-06 05:34:00,54.4,38.9,29.89,South,180,6.9,12.1,56,0.00,,,0.00,WUHU216HW,2013-04-06 10:34:00,
2013-04-06 05:37:00,54.4,38.9,29.89,South,180,11.4,12.1,56,0.00,,,0.00,WUHU216HW,2013-04-06 10:37:00,
2013-04-06 05:39:00,54.5,39.1,29.89,SSE,158,8.3,12.1,56,0.00,,,0.00,WUHU216HW,2013-04-06 10:39:00,
2013-04-06 05:40:00,54.5,39.1,29.89,SSE,158,8.9,12.1,56,0.00,,,0.00,WUHU216HW,2013-04-06 10:40:00,
2013-04-06 05:42:00,54.5,39.1,29.89,SSE,158,9.4,12.1,56,0.00,,,0.00,WUHU216HW,2013-04-06 10:42:00,
2013-04-06 05:43:00,54.5,39.1,29.89,South,180,8.9,11.4,56,0.00,,,0.00,WUHU216HW,2013-04-06 10:43:00,
2013-04-06 05:45:00,54.5,39.5,29.89,South,180,6.3,11.4,57,0.00,,,0.00,WUHU216HW,2013-04-06 10:45:00,
2013-04-06 05:47:00,54.5,39.1,29.90,SSE,158,6.3,11.0,56,0.00,,,0.00,WUHU216HW,2013-04-06 10:47:00,
2013-04-06 05:48:00,54.5,39.1,29.90,SSE,158,6.3,10.1,56,0.00,,,0.00,WUHU216HW,2013-04-06 10:48:00,
2013-04-06 05:52:00,54.5,39.1,29.90,SSW,203,4.5,9.6,56,0.00,,,0.00,WUHU216HW,2013-04-06 10:52:00,
2013-04-06 05:53:00,54.5,39.1,29.90,SSW,203,4.5,9.6,56,0.00,,,0.00,WUHU216HW,2013-04-06 10:53:00,
2013-04-06 05:54:00,54.5,39.1,29.90,South,180,7.2,9.2,56,0.00,,,0.00,WUHU216HW,2013-04-06 10:54:00,
2013-04-06 05:57:00,54.4,38.9,29.90,South,180,9.6,9.6,56,0.00,,,0.00,WUHU216HW,2013-04-06 10:57:00,
2013-04-06 05:58:00,54.4,38.9,29.90,South,180,9.6,9.6,56,0.00,,,0.00,WUHU216HW,2013-04-06 10:58:00,
2013-04-06 06:02:00,54.4,39.4,29.90,SSE,158,6.9,9.6,57,0.00,,,0.00,WUHU216HW,2013-04-06 11:02:00,
2013-04-06 06:03:00,54.4,39.4,29.90,SSE,158,6.9,9.6,57,0.00,,,0.00,WUHU216HW,2013-04-06 11:03:00,
2013-04-06 06:04:00,54.2,39.3,29.89,South,180,7.4,9.6,57,0.00,,,0.00,WUHU216HW,2013-04-06 11:04:00,
2013-04-06 06:06:00,54.2,39.3,29.89,SSE,158,9.8,9.8,57,0.00,,,0.00,WUHU216HW,2013-04-06 11:06:00,
2013-04-06 06:08:00,54.2,39.3,29.89,SSE,158,9.8,9.8,57,0.00,,,0.00,WUHU216HW,2013-04-06 11:08:00,
2013-04-06 06:09:00,54.0,39.1,29.89,SSW,203,9.2,9.8,57,0.00,,,0.00,WUHU216HW,2013-04-06 11:09:00,
2013-04-06 06:10:00,54.2,39.7,29.89,South,180,10.1,10.1,58,0.00,,,0.00,WUHU216HW,2013-04-06 11:10:00,
2013-04-06 06:12:00,54.2,39.7,29.90,South,180,7.8,11.2,58,0.00,,,0.00,WUHU216HW,2013-04-06 11:12:00,
2013-04-06 06:13:00,54.2,39.7,29.90,South,180,7.8,11.2,58,0.00,,,0.00,WUHU216HW,2013-04-06 11:13:00,
2013-04-06 06:15:00,54.2,39.7,29.89,SSE,158,11.4,11.4,58,0.00,,,0.00,WUHU216HW,2013-04-06 11:15:00,
2013-04-06 06:16:00,54.2,39.7,29.90,SSE,158,11.2,11.4,58,0.00,,,0.00,WUHU216HW,2013-04-06 11:16:00,
2013-04-06 06:18:00,54.2,39.7,29.89,SSE,158,10.1,11.4,58,0.00,,,0.00,WUHU216HW,2013-04-06 11:18:00,
2013-04-06 06:20:00,54.4,39.9,29.89,SSE,158,12.3,12.3,58,0.00,,,0.00,WUHU216HW,2013-04-06 11:20:00,
2013-04-06 06:21:00,54.4,39.9,29.89,SSE,158,11.2,12.3,58,0.00,,,0.00,WUHU216HW,2013-04-06 11:21:00,
2013-04-06 06:23:00,54.4,39.9,29.89,South,180,9.4,12.3,58,0.00,,,0.00,WUHU216HW,2013-04-06 11:23:00,
2013-04-06 06:25:00,54.4,39.9,29.90,SSE,158,8.9,12.3,58,0.00,,,0.00,WUHU216HW,2013-04-06 11:25:00,
2013-04-06 06:26:00,54.4,39.9,29.90,SSE,158,6.3,12.3,58,0.00,,,0.00,WUHU216HW,2013-04-06 11:26:00,
2013-04-06 06:28:00,54.2,39.7,29.90,SSE,158,9.2,12.3,58,0.00,,,0.00,WUHU216HW,2013-04-06 11:28:00,
2013-04-06 06:29:00,54.2,39.7,29.90,SSE,158,9.2,12.3,58,0.00,,,0.00,WUHU216HW,2013-04-06 11:29:00,
2013-04-06 06:31:00,54.4,39.9,29.90,South,180,8.9,10.5,58,0.00,,,0.00,WUHU216HW,2013-04-06 11:31:00,
2013-04-06 06:33:00,54.4,39.9,29.90,South,180,6.3,10.5,58,0.00,,,0.00,WUHU216HW,2013-04-06 11:33:00,
2013-04-06 06:35:00,54.5,40.1,29.89,South,180,12.1,12.1,58,0.00,,,0.00,WUHU216HW,2013-04-06 11:35:00,
2013-04-06 06:37:00,54.5,40.1,29.89,SSE,158,9.8,13.6,58,0.00,,,0.00,WUHU216HW,2013-04-06 11:37:00,
2013-04-06 06:38:00,54.5,40.1,29.89,SSE,158,9.8,13.6,58,0.00,,,0.00,WUHU216HW,2013-04-06 11:38:00,
2013-04-06 06:40:00,54.7,40.1,29.90,SSE,158,4.7,13.6,58,0.00,,,0.00,WUHU216HW,2013-04-06 11:40:00,
2013-04-06 06:42:00,54.7,40.1,29.90,SSE,158,4.3,13.6,58,0.00,,,0.00,WUHU216HW,2013-04-06 11:42:00,
2013-04-06 06:43:00,54.7,40.1,29.90,SSE,158,4.3,13.6,58,0.00,,,0.00,WUHU216HW,2013-04-06 11:43:00,
2013-04-06 06:44:00,54.7,40.1,29.90,South,180,7.8,13.6,58,0.00,,,0.00,WUHU216HW,2013-04-06 11:44:00,
2013-04-06 06:45:00,54.7,39.7,29.90,South,180,7.6,13.6,57,0.00,,,0.00,WUHU216HW,2013-04-06 11:45:00,
2013-04-06 06:46:00,54.7,39.7,29.91,SSE,158,5.6,11.6,57,0.00,,,0.00,WUHU216HW,2013-04-06 11:46:00,
2013-04-06 06:48:00,54.9,40.3,29.91,South,180,6.9,11.6,58,0.00,,,0.00,WUHU216HW,2013-04-06 11:48:00,
2013-04-06 06:49:00,54.9,40.3,29.91,SSW,203,6.0,7.8,58,0.00,,,0.00,WUHU216HW,2013-04-06 11:49:00,
2013-04-06 06:52:00,54.9,40.3,29.90,SSE,158,5.4,7.8,58,0.00,,,0.00,WUHU216HW,2013-04-06 11:52:00,
2013-04-06 06:53:00,54.9,40.3,29.90,SSE,158,5.4,7.8,58,0.00,,,0.00,WUHU216HW,2013-04-06 11:53:00,
2013-04-06 06:57:00,54.9,40.3,29.90,South,180,6.3,10.1,58,0.00,,,0.00,WUHU216HW,2013-04-06 11:57:00,
2013-04-06 06:59:00,54.9,40.3,29.90,South,180,6.3,10.1,58,0.00,,,0.00,WUHU216HW,2013-04-06 11:59:00,
2013-04-06 07:00:00,54.9,40.3,29.91,SSE,158,4.0,10.1,58,0.00,,,0.00,WUHU216HW,2013-04-06 12:00:00,
2013-04-06 07:02:00,54.9,40.3,29.91,South,180,4.0,10.1,58,0.00,,,0.00,WUHU216HW,2013-04-06 12:02:00,
2013-04-06 07:04:00,54.9,40.8,29.91,South,180,6.0,10.1,59,0.00,,,0.00,WUHU216HW,2013-04-06 12:04:00,
2013-04-06 07:06:00,54.9,40.3,29.90,South,180,7.4,9.2,58,0.00,,,0.00,WUHU216HW,2013-04-06 12:06:00,
2013-04-06 07:08:00,55.1,40.5,29.91,South,180,10.1,10.1,58,0.00,,,0.00,WUHU216HW,2013-04-06 12:08:00,
2013-04-06 07:09:00,55.1,40.5,29.91,South,180,10.1,10.1,58,0.00,,,0.00,WUHU216HW,2013-04-06 12:09:00,
2013-04-06 07:10:00,55.1,40.5,29.90,SSE,158,7.4,10.1,58,0.00,,,0.00,WUHU216HW,2013-04-06 12:10:00,
2013-04-06 07:11:00,55.1,40.5,29.90,SSE,158,10.1,10.1,58,0.00,,,0.00,WUHU216HW,2013-04-06 12:11:00,
2013-04-06 07:13:00,55.1,41.0,29.91,South,180,9.6,10.1,59,0.00,,,0.00,WUHU216HW,2013-04-06 12:13:00,
2013-04-06 07:14:00,55.1,41.0,29.91,South,180,9.6,10.1,59,0.00,,,0.00,WUHU216HW,2013-04-06 12:14:00,
2013-04-06 07:15:00,55.1,41.0,29.91,South,180,7.4,10.1,59,0.00,,,0.00,WUHU216HW,2013-04-06 12:15:00,
2013-04-06 07:16:00,55.1,40.5,29.91,SSE,158,10.3,10.3,58,0.00,,,0.00,WUHU216HW,2013-04-06 12:16:00,
2013-04-06 07:18:00,55.3,40.7,29.91,SSE,158,9.8,10.3,58,0.00,,,0.00,WUHU216HW,2013-04-06 12:18:00,
2013-04-06 07:19:00,55.3,40.7,29.91,SSE,158,9.8,10.3,58,0.00,,,0.00,WUHU216HW,2013-04-06 12:19:00,
2013-04-06 07:23:00,55.4,40.9,29.91,South,180,11.0,11.9,58,0.00,,,0.00,WUHU216HW,2013-04-06 12:23:00,
2013-04-06 07:24:00,55.4,41.3,29.91,South,180,11.2,11.9,59,0.00,,,0.00,WUHU216HW,2013-04-06 12:24:00,
2013-04-06 07:25:00,55.4,41.3,29.91,South,180,11.2,11.9,59,0.00,,,0.00,WUHU216HW,2013-04-06 12:25:00,
2013-04-06 07:26:00,55.3,41.1,29.91,SSE,158,11.4,11.9,59,0.00,,,0.00,WUHU216HW,2013-04-06 12:26:00,
2013-04-06 07:27:00,55.4,41.3,29.90,SSE,158,6.7,11.9,59,0.00,,,0.00,WUHU216HW,2013-04-06 12:27:00,
2013-04-06 07:29:00,55.3,41.1,29.91,South,180,10.1,11.9,59,0.00,,,0.00,WUHU216HW,2013-04-06 12:29:00,
2013-04-06 07:30:00,55.3,41.1,29.91,South,180,10.1,11.9,59,0.00,,,0.00,WUHU216HW,2013-04-06 12:30:00,
2013-04-06 07:32:00,55.4,41.3,29.91,SSE,158,9.8,11.4,59,0.00,,,0.00,WUHU216HW,2013-04-06 12:32:00,
2013-04-06 07:33:00,55.4,41.3,29.91,South,180,10.5,11.4,59,0.00,,,0.00,WUHU216HW,2013-04-06 12:33:00,
2013-04-06 07:35:00,55.4,41.3,29.91,South,180,10.5,11.4,59,0.00,,,0.00,WUHU216HW,2013-04-06 12:35:00,
2013-04-06 07:36:00,55.4,41.3,29.90,SSE,158,10.3,11.9,59,0.00,,,0.00,WUHU216HW,2013-04-06 12:36:00,
2013-04-06 07:38:00,55.4,41.8,29.90,South,180,8.5,11.9,60,0.00,,,0.00,WUHU216HW,2013-04-06 12:38:00,
2013-04-06 07:39:00,55.4,41.3,29.91,SSE,158,13.9,13.9,59,0.00,,,0.00,WUHU216HW,2013-04-06 12:39:00,
2013-04-06 07:40:00,55.4,41.3,29.91,SSE,158,13.9,13.9,59,0.00,,,0.00,WUHU216HW,2013-04-06 12:40:00,
2013-04-06 07:41:00,55.4,41.8,29.90,SSE,158,8.5,13.9,60,0.00,,,0.00,WUHU216HW,2013-04-06 12:41:00,
2013-04-06 07:42:00,55.4,41.3,29.90,South,180,8.7,13.9,59,0.00,,,0.00,WUHU216HW,2013-04-06 12:42:00,
2013-04-06 07:44:00,55.4,41.8,29.91,South,180,8.5,13.9,60,0.00,,,0.00,WUHU216HW,2013-04-06 12:44:00,
2013-04-06 07:45:00,55.4,41.8,29.91,South,180,8.5,13.9,60,0.00,,,0.00,WUHU216HW,2013-04-06 12:45:00,
2013-04-06 07:47:00,55.4,41.8,29.90,SSE,158,12.8,13.9,60,0.00,,,0.00,WUHU216HW,2013-04-06 12:47:00,
2013-04-06 07:49:00,55.6,41.9,29.90,South,180,9.8,13.0,60,0.00,,,0.00,WUHU216HW,2013-04-06 12:49:00,
2013-04-06 07:50:00,55.6,41.9,29.90,South,180,9.8,13.0,60,0.00,,,0.00,WUHU216HW,2013-04-06 12:50:00,
2013-04-06 07:55:00,55.6,41.9,29.91,South,180,10.5,12.8,60,0.00,,,0.00,WUHU216HW,2013-04-06 12:55:00,
2013-04-06 08:00:00,55.8,42.1,29.91,SSW,203,8.5,11.2,60,0.00,,,0.00,WUHU216HW,2013-04-06 13:00:00,
2013-04-06 08:03:00,56.2,42.0,29.91,SSW,203,9.2,12.8,59,0.00,,,0.00,WUHU216HW,2013-04-06 13:03:00,
2013-04-06 08:05:00,56.2,42.5,29.91,SSE,158,6.7,12.8,60,0.00,,,0.00,WUHU216HW,2013-04-06 13:05:00,
2013-04-06 08:08:00,56.2,42.5,29.91,SSE,158,14.8,14.8,60,0.00,,,0.00,WUHU216HW,2013-04-06 13:08:00,
2013-04-06 08:10:00,56.2,42.5,29.91,South,180,12.1,14.8,60,0.00,,,0.00,WUHU216HW,2013-04-06 13:10:00,
2013-04-06 08:11:00,56.2,42.5,29.91,South,180,12.1,14.8,60,0.00,,,0.00,WUHU216HW,2013-04-06 13:11:00,
2013-04-06 08:12:00,56.2,42.5,29.91,SSE,158,9.4,14.8,60,0.00,,,0.00,WUHU216HW,2013-04-06 13:12:00,
2013-04-06 08:14:00,56.2,42.5,29.91,SSW,203,7.6,14.8,60,0.00,,,0.00,WUHU216HW,2013-04-06 13:14:00,
2013-04-06 08:16:00,56.2,42.5,29.91,SSE,158,10.1,14.8,60,0.00,,,0.00,WUHU216HW,2013-04-06 13:16:00,
2013-04-06 08:17:00,56.2,42.5,29.91,SW,225,11.2,14.8,60,0.00,,,0.00,WUHU216HW,2013-04-06 13:17:00,
2013-04-06 08:18:00,56.3,42.7,29.91,SSW,203,12.5,13.2,60,0.00,,,0.00,WUHU216HW,2013-04-06 13:18:00,
2013-04-06 08:20:00,56.2,42.5,29.91,SSE,158,12.1,12.5,60,0.00,,,0.00,WUHU216HW,2013-04-06 13:20:00,
2013-04-06 08:21:00,56.2,42.5,29.91,SSE,158,12.1,12.5,60,0.00,,,0.00,WUHU216HW,2013-04-06 13:21:00,
2013-04-06 08:23:00,56.2,42.5,29.91,SSW,203,15.4,15.4,60,0.00,,,0.00,WUHU216HW,2013-04-06 13:23:00,
2013-04-06 08:25:00,56.3,43.0,29.91,South,180,9.8,15.7,61,0.00,,,0.00,WUHU216HW,2013-04-06 13:25:00,
2013-04-06 08:26:00,56.3,42.7,29.91,SSW,203,11.4,15.7,60,0.00,,,0.00,WUHU216HW,2013-04-06 13:26:00,
2013-04-06 08:27:00,56.3,43.0,29.91,SSE,158,10.5,15.7,61,0.00,,,0.00,WUHU216HW,2013-04-06 13:27:00,
2013-04-06 08:29:00,56.5,43.2,29.91,SSW,203,10.5,15.7,61,0.00,,,0.00,WUHU216HW,2013-04-06 13:29:00,
2013-04-06 08:31:00,56.5,43.2,29.91,SSE,158,11.6,15.7,61,0.00,,,0.00,WUHU216HW,2013-04-06 13:31:00,
2013-04-06 08:32:00,56.5,43.2,29.91,SSE,158,10.3,15.7,61,0.00,,,0.00,WUHU216HW,2013-04-06 13:32:00,
2013-04-06 08:33:00,56.5,43.2,29.91,South,180,13.0,15.7,61,0.00,,,0.00,WUHU216HW,2013-04-06 13:33:00,
2013-04-06 08:34:00,56.7,43.4,29.91,SSE,158,12.8,14.1,61,0.00,,,0.00,WUHU216HW,2013-04-06 13:34:00,
2013-04-06 08:36:00,56.9,43.6,29.91,South,180,12.8,14.1,61,0.00,,,0.00,WUHU216HW,2013-04-06 13:36:00,
2013-04-06 08:37:00,56.9,43.6,29.91,South,180,12.8,14.1,61,0.00,,,0.00,WUHU216HW,2013-04-06 13:37:00,
2013-04-06 08:39:00,57.2,43.6,29.90,South,180,13.2,13.2,60,0.00,,,0.00,WUHU216HW,2013-04-06 13:39:00,
2013-04-06 08:42:00,57.8,44.0,29.91,SW,225,13.2,15.7,60,0.00,,,0.00,WUHU216HW,2013-04-06 13:42:00,
2013-04-06 08:44:00,58.1,44.4,29.90,SSE,158,13.4,15.7,60,0.00,,,0.00,WUHU216HW,2013-04-06 13:44:00,
2013-04-06 08:46:00,58.3,44.1,29.90,South,180,16.1,16.1,59,0.00,,,0.00,WUHU216HW,2013-04-06 13:46:00,
2013-04-06 08:47:00,58.1,43.9,29.90,SSE,158,12.1,15.7,59,0.00,,,0.00,WUHU216HW,2013-04-06 13:47:00,
2013-04-06 08:48:00,58.3,44.1,29.91,South,180,15.2,16.1,59,0.00,,,0.00,WUHU216HW,2013-04-06 13:48:00,
2013-04-06 08:49:00,58.5,44.2,29.91,South,180,11.6,16.1,59,0.00,,,0.00,WUHU216HW,2013-04-06 13:49:00,
2013-04-06 08:51:00,58.7,44.8,29.90,SSE,158,13.9,16.1,60,0.00,,,0.00,WUHU216HW,2013-04-06 13:51:00,
2013-04-06 08:52:00,58.7,44.8,29.90,SSE,158,13.9,16.1,60,0.00,,,0.00,WUHU216HW,2013-04-06 13:52:00,
2013-04-06 08:53:00,58.9,44.6,29.90,SSE,158,12.1,16.6,59,0.00,,,0.00,WUHU216HW,2013-04-06 13:53:00,
2013-04-06 08:55:00,59.2,45.4,29.91,WSW,248,11.4,16.6,60,0.00,,,0.00,WUHU216HW,2013-04-06 13:55:00,
2013-04-06 08:56:00,59.4,45.1,29.91,South,180,16.1,16.6,59,0.00,,,0.00,WUHU216HW,2013-04-06 13:56:00,
2013-04-06 08:57:00,59.4,45.1,29.91,South,180,16.1,16.6,59,0.00,,,0.00,WUHU216HW,2013-04-06 13:57:00,
2013-04-06 08:58:00,59.4,45.1,29.91,SSW,203,11.4,16.6,59,0.00,,,0.00,WUHU216HW,2013-04-06 13:58:00,
2013-04-06 09:00:00,59.4,45.5,29.91,South,180,13.9,16.6,60,0.00,,,0.00,WUHU216HW,2013-04-06 14:00:00,
2013-04-06 09:02:00,59.4,44.7,29.91,SSE,158,15.7,16.6,58,0.00,,,0.00,WUHU216HW,2013-04-06 14:02:00,
2013-04-06 09:03:00,59.4,45.1,29.91,South,180,14.8,16.1,59,0.00,,,0.00,WUHU216HW,2013-04-06 14:03:00,
2013-04-06 09:04:00,59.4,45.1,29.91,SE,135,17.7,17.7,59,0.00,,,0.00,WUHU216HW,2013-04-06 14:04:00,
2013-04-06 09:06:00,59.4,45.1,29.91,South,180,21.5,21.5,59,0.00,,,0.00,WUHU216HW,2013-04-06 14:06:00,
2013-04-06 09:07:00,59.4,45.1,29.91,South,180,12.3,21.5,59,0.00,,,0.00,WUHU216HW,2013-04-06 14:07:00,
2013-04-06 09:08:00,59.2,44.9,29.91,SSW,203,9.8,21.5,59,0.00,,,0.00,WUHU216HW,2013-04-06 14:08:00,
2013-04-06 09:09:00,59.2,44.9,29.91,SSW,203,13.2,21.5,59,0.00,,,0.00,WUHU216HW,2013-04-06 14:09:00,
2013-04-06 09:10:00,59.2,44.9,29.91,SSE,158,12.8,21.5,59,0.00,,,0.00,WUHU216HW,2013-04-06 14:10:00,
2013-04-06 09:12:00,59.0,44.7,29.91,SSW,203,15.0,21.5,59,0.00,,,0.00,WUHU216HW,2013-04-06 14:12:00,
2013-04-06 09:13:00,59.0,44.7,29.91,SSW,203,15.0,21.5,59,0.00,,,0.00,WUHU216HW,2013-04-06 14:13:00,
2013-04-06 09:17:00,59.0,45.2,29.92,South,180,6.3,17.7,60,0.00,,,0.00,WUHU216HW,2013-04-06 14:17:00,
2013-04-06 09:18:00,59.0,45.2,29.92,South,180,6.3,17.7,60,0.00,,,0.00,WUHU216HW,2013-04-06 14:18:00,
2013-04-06 09:20:00,59.0,45.2,29.93,SSE,158,8.7,17.7,60,0.00,,,0.00,WUHU216HW,2013-04-06 14:20:00,
2013-04-06 09:22:00,58.9,44.6,29.94,SW,225,5.4,11.2,59,0.00,,,0.00,WUHU216HW,2013-04-06 14:22:00,
2013-04-06 09:23:00,58.9,44.6,29.94,SW,225,5.4,11.2,59,0.00,,,0.00,WUHU216HW,2013-04-06 14:23:00,
2013-04-06 09:25:00,59.0,44.7,29.94,South,180,5.4,10.1,59,0.00,,,0.00,WUHU216HW,2013-04-06 14:25:00,
2013-04-06 09:26:00,58.9,44.6,29.94,SSW,203,8.5,10.1,59,0.00,,,0.00,WUHU216HW,2013-04-06 14:26:00,
2013-04-06 09:28:00,58.9,44.6,29.94,SSW,203,8.5,10.1,59,0.00,,,0.00,WUHU216HW,2013-04-06 14:28:00,
2013-04-06 09:29:00,59.0,44.7,29.94,SSW,203,7.2,10.1,59,0.00,,,0.00,WUHU216HW,2013-04-06 14:29:00,
2013-04-06 09:33:00,59.0,45.2,29.94,South,180,15.0,15.7,60,0.00,,,0.00,WUHU216HW,2013-04-06 14:33:00,
2013-04-06 09:34:00,59.0,45.2,29.94,SSE,158,10.5,15.7,60,0.00,,,0.00,WUHU216HW,2013-04-06 14:34:00,
2013-04-06 09:37:00,59.0,45.2,29.94,South,180,6.5,15.7,60,0.00,,,0.00,WUHU216HW,2013-04-06 14:37:00,
2013-04-06 09:38:00,59.0,45.2,29.94,South,180,6.5,15.7,60,0.00,,,0.00,WUHU216HW,2013-04-06 14:38:00,
2013-04-06 09:39:00,59.0,45.2,29.94,SW,225,12.1,15.7,60,0.00,,,0.00,WUHU216HW,2013-04-06 14:39:00,
2013-04-06 09:41:00,59.2,45.4,29.94,South,180,9.8,15.0,60,0.00,,,0.00,WUHU216HW,2013-04-06 14:41:00,
2013-04-06 09:42:00,59.2,45.4,29.94,South,180,7.8,14.5,60,0.00,,,0.00,WUHU216HW,2013-04-06 14:42:00,
2013-04-06 09:44:00,59.2,45.4,29.94,South,180,7.8,14.5,60,0.00,,,0.00,WUHU216HW,2013-04-06 14:44:00,
2013-04-06 09:48:00,59.4,45.5,29.93,South,180,7.2,12.1,60,0.00,,,0.00,WUHU216HW,2013-04-06 14:48:00,
2013-04-06 09:49:00,59.4,45.5,29.93,South,180,7.2,12.1,60,0.00,,,0.00,WUHU216HW,2013-04-06 14:49:00,
2013-04-06 09:51:00,60.1,46.3,29.93,SSE,158,7.2,11.4,60,0.00,,,0.00,WUHU216HW,2013-04-06 14:51:00,
2013-04-06 09:54:00,60.3,46.0,29.94,South,180,17.2,17.2,59,0.00,,,0.00,WUHU216HW,2013-04-06 14:54:00,
2013-04-06 09:55:00,60.8,46.0,29.93,SSE,158,16.3,17.2,58,0.00,,,0.00,WUHU216HW,2013-04-06 14:55:00,
2013-04-06 09:57:00,61.0,46.2,29.92,South,180,17.4,17.4,58,0.00,,,0.00,WUHU216HW,2013-04-06 14:57:00,
2013-04-06 09:59:00,61.2,46.4,29.92,SSW,203,16.1,17.4,58,0.00,,,0.00,WUHU216HW,2013-04-06 14:59:00,
2013-04-06 10:00:00,61.4,46.0,29.92,South,180,13.4,17.4,57,0.00,,,0.00,WUHU216HW,2013-04-06 15:00:00,
2013-04-06 10:02:00,61.6,46.6,29.92,South,180,8.7,17.4,58,0.00,,,0.00,WUHU216HW,2013-04-06 15:02:00,
2013-04-06 10:03:00,61.7,46.4,29.92,SSE,158,16.3,17.4,57,0.00,,,0.00,WUHU216HW,2013-04-06 15:03:00,
2013-04-06 10:05:00,61.7,46.4,29.92,WSW,248,13.4,17.4,57,0.00,,,0.00,WUHU216HW,2013-04-06 15:05:00,
2013-04-06 10:06:00,62.1,46.6,29.92,SSE,158,7.8,17.4,57,0.00,,,0.00,WUHU216HW,2013-04-06 15:06:00,
2013-04-06 10:09:00,62.3,46.4,29.92,South,180,15.9,19.0,56,0.00,,,0.00,WUHU216HW,2013-04-06 15:09:00,
2013-04-06 10:10:00,62.3,46.4,29.92,South,180,15.9,19.0,56,0.00,,,0.00,WUHU216HW,2013-04-06 15:10:00,
2013-04-06 10:12:00,61.7,46.4,29.91,SSE,158,20.1,20.1,57,0.00,,,0.00,WUHU216HW,2013-04-06 15:12:00,
2013-04-06 10:15:00,61.2,46.4,29.91,SW,225,14.3,20.1,58,0.00,,,0.00,WUHU216HW,2013-04-06 15:15:00,
2013-04-06 10:17:00,61.4,47.0,29.90,South,180,18.6,20.1,59,0.00,,,0.00,WUHU216HW,2013-04-06 15:17:00,
2013-04-06 10:18:00,61.6,46.6,29.89,SSE,158,12.5,20.1,58,0.00,,,0.00,WUHU216HW,2013-04-06 15:18:00,
2013-04-06 10:20:00,61.6,46.6,29.89,SSE,158,12.5,20.1,58,0.00,,,0.00,WUHU216HW,2013-04-06 15:20:00,
2013-04-06 10:23:00,62.3,46.4,29.89,SSE,158,20.6,23.7,56,0.00,,,0.00,WUHU216HW,2013-04-06 15:23:00,
2013-04-06 10:25:00,62.3,46.4,29.89,SSE,158,20.6,23.7,56,0.00,,,0.00,WUHU216HW,2013-04-06 15:25:00,
2013-04-06 10:27:00,62.5,46.0,29.88,SSE,158,23.0,23.7,55,0.00,,,0.00,WUHU216HW,2013-04-06 15:27:00,
2013-04-06 10:29:00,62.1,46.2,29.88,SSW,203,23.0,24.4,56,0.00,,,0.00,WUHU216HW,2013-04-06 15:29:00,
2013-04-06 10:30:00,62.1,46.2,29.88,SSW,203,23.0,24.4,56,0.00,,,0.00,WUHU216HW,2013-04-06 15:30:00,
2013-04-06 10:31:00,62.1,46.2,29.88,South,180,18.6,24.4,56,0.00,,,0.00,WUHU216HW,2013-04-06 15:31:00,
2013-04-06 10:33:00,62.3,46.4,29.87,SSE,158,14.3,24.4,56,0.00,,,0.00,WUHU216HW,2013-04-06 15:33:00,
2013-04-06 10:35:00,62.1,46.2,29.88,SSW,203,15.7,24.4,56,0.00,,,0.00,WUHU216HW,2013-04-06 15:35:00,
2013-04-06 10:36:00,62.3,46.8,29.87,SSE,158,11.4,24.4,57,0.00,,,0.00,WUHU216HW,2013-04-06 15:36:00,
2013-04-06 10:38:00,62.8,46.4,29.87,SSW,203,20.4,23.0,55,0.00,,,0.00,WUHU216HW,2013-04-06 15:38:00,
2013-04-06 10:40:00,63.0,46.5,29.87,South,180,19.2,20.4,55,0.00,,,0.00,WUHU216HW,2013-04-06 15:40:00,
2013-04-06 10:41:00,63.2,46.6,29.87,SSE,158,24.8,24.8,55,0.00,,,0.00,WUHU216HW,2013-04-06 15:41:00,
2013-04-06 10:42:00,63.2,46.2,29.87,SSW,203,23.7,24.8,54,0.00,,,0.00,WUHU216HW,2013-04-06 15:42:00,
2013-04-06 10:45:00,63.4,46.8,29.87,SSE,158,21.9,24.8,55,0.00,,,0.00,WUHU216HW,2013-04-06 15:45:00,
2013-04-06 10:47:00,63.5,46.5,29.87,South,180,15.9,24.8,54,0.00,,,0.00,WUHU216HW,2013-04-06 15:47:00,
2013-04-06 10:48:00,63.7,46.6,29.87,South,180,16.8,24.8,54,0.00,,,0.00,WUHU216HW,2013-04-06 15:48:00,
2013-04-06 10:51:00,63.9,46.4,29.87,SSE,158,23.0,24.8,53,0.00,,,0.00,WUHU216HW,2013-04-06 15:51:00,
2013-04-06 10:52:00,63.9,46.8,29.87,SSW,203,19.9,23.0,54,0.00,,,0.00,WUHU216HW,2013-04-06 15:52:00,
2013-04-06 10:53:00,63.9,46.4,29.87,SSE,158,22.6,23.0,53,0.00,,,0.00,WUHU216HW,2013-04-06 15:53:00,
2013-04-06 10:56:00,64.3,47.2,29.87,South,180,17.9,23.0,54,0.00,,,0.00,WUHU216HW,2013-04-06 15:56:00,
2013-04-06 10:57:00,64.3,47.2,29.87,South,180,17.9,23.0,54,0.00,,,0.00,WUHU216HW,2013-04-06 15:57:00,
2013-04-06 10:58:00,64.4,46.4,29.87,SE,135,19.5,23.0,52,0.00,,,0.00,WUHU216HW,2013-04-06 15:58:00,
2013-04-06 11:00:00,64.4,46.8,29.87,SSE,158,21.9,23.7,53,0.00,,,0.00,WUHU216HW,2013-04-06 16:00:00,
2013-04-06 11:02:00,64.4,46.4,29.87,SSW,203,20.4,23.7,52,0.00,,,0.00,WUHU216HW,2013-04-06 16:02:00,
2013-04-06 11:03:00,64.4,46.4,29.87,SSW,203,20.4,23.7,52,0.00,,,0.00,WUHU216HW,2013-04-06 16:03:00,
2013-04-06 11:04:00,64.8,46.7,29.87,SSW,203,19.9,23.7,52,0.00,,,0.00,WUHU216HW,2013-04-06 16:04:00,
2013-04-06 11:06:00,64.8,47.2,29.87,SSW,203,9.8,23.7,53,0.00,,,0.00,WUHU216HW,2013-04-06 16:06:00,
2013-04-06 11:07:00,65.2,46.5,29.87,South,180,14.3,23.7,51,0.00,,,0.00,WUHU216HW,2013-04-06 16:07:00,
2013-04-06 11:08:00,65.2,46.5,29.87,South,180,14.3,23.7,51,0.00,,,0.00,WUHU216HW,2013-04-06 16:08:00,
2013-04-06 11:11:00,64.8,46.7,29.87,South,180,10.5,20.4,52,0.00,,,0.00,WUHU216HW,2013-04-06 16:11:00,
2013-04-06 11:13:00,64.8,46.7,29.87,South,180,10.5,20.4,52,0.00,,,0.00,WUHU216HW,2013-04-06 16:13:00,
2013-04-06 11:17:00,65.2,47.5,29.87,SSW,203,16.8,21.3,53,0.00,,,0.00,WUHU216HW,2013-04-06 16:17:00,
2013-04-06 11:18:00,65.2,47.5,29.87,SSW,203,16.8,21.3,53,0.00,,,0.00,WUHU216HW,2013-04-06 16:18:00,
2013-04-06 11:20:00,66.1,47.0,29.87,SSW,203,16.6,21.3,50,0.00,,,0.00,WUHU216HW,2013-04-06 16:20:00,
2013-04-06 11:22:00,65.5,46.4,29.87,SSW,203,18.8,21.3,50,0.00,,,0.00,WUHU216HW,2013-04-06 16:22:00,
2013-04-06 11:23:00,65.5,46.4,29.87,SSW,203,18.8,21.3,50,0.00,,,0.00,WUHU216HW,2013-04-06 16:23:00,
2013-04-06 11:25:00,65.5,46.9,29.86,SSE,158,23.0,23.0,51,0.00,,,0.00,WUHU216HW,2013-04-06 16:25:00,
2013-04-06 11:26:00,65.9,47.3,29.86,SSE,158,21.7,23.0,51,0.00,,,0.00,WUHU216HW,2013-04-06 16:26:00,
2013-04-06 11:28:00,66.2,47.2,29.86,SSE,158,21.9,23.0,50,0.00,,,0.00,WUHU216HW,2013-04-06 16:28:00,
2013-04-06 11:29:00,66.4,47.4,29.86,SSW,203,19.5,23.0,50,0.00,,,0.00,WUHU216HW,2013-04-06 16:29:00,
2013-04-06 11:32:00,66.4,47.4,29.86,SSE,158,24.4,24.4,50,0.00,,,0.00,WUHU216HW,2013-04-06 16:32:00,
2013-04-06 11:34:00,66.4,47.4,29.86,SSE,158,24.4,24.4,50,0.00,,,0.00,WUHU216HW,2013-04-06 16:34:00,
2013-04-06 11:37:00,66.6,46.3,29.86,SSE,158,28.9,28.9,48,0.00,,,0.00,WUHU216HW,2013-04-06 16:37:00,
2013-04-06 11:38:00,66.6,46.3,29.86,South,180,23.5,28.9,48,0.00,,,0.00,WUHU216HW,2013-04-06 16:38:00,
2013-04-06 11:39:00,66.6,46.3,29.86,South,180,23.5,28.9,48,0.00,,,0.00,WUHU216HW,2013-04-06 16:39:00,
2013-04-06 11:40:00,66.4,46.7,29.86,SSW,203,19.7,28.9,49,0.00,,,0.00,WUHU216HW,2013-04-06 16:40:00,
2013-04-06 11:41:00,66.6,48.0,29.86,South,180,17.2,28.9,51,0.00,,,0.00,WUHU216HW,2013-04-06 16:41:00,
2013-04-06 11:42:00,66.6,47.5,29.86,South,180,15.9,28.9,50,0.00,,,0.00,WUHU216HW,2013-04-06 16:42:00,
2013-04-06 11:44:00,66.8,47.1,29.86,SSW,203,17.7,28.9,49,0.00,,,0.00,WUHU216HW,2013-04-06 16:44:00,
2013-04-06 11:47:00,66.8,47.1,29.86,South,180,15.7,23.9,49,0.00,,,0.00,WUHU216HW,2013-04-06 16:47:00,
2013-04-06 11:49:00,67.0,47.3,29.86,SSE,158,22.4,23.9,49,0.00,,,0.00,WUHU216HW,2013-04-06 16:49:00,
2013-04-06 11:50:00,67.3,48.2,29.86,SSE,158,14.1,23.9,50,0.00,,,0.00,WUHU216HW,2013-04-06 16:50:00,
2013-04-06 11:52:00,67.9,47.4,29.86,South,180,15.4,23.9,48,0.00,,,0.00,WUHU216HW,2013-04-06 16:52:00,
2013-04-06 11:54:00,68.2,47.2,29.86,SSE,158,21.5,23.9,47,0.00,,,0.00,WUHU216HW,2013-04-06 16:54:00,
2013-04-06 11:55:00,68.0,47.6,29.86,SSE,158,10.7,23.9,48,0.00,,,0.00,WUHU216HW,2013-04-06 16:55:00,
2013-04-06 11:56:00,67.9,48.1,29.86,South,180,14.3,22.4,49,0.00,,,0.00,WUHU216HW,2013-04-06 16:56:00,
2013-04-06 12:00:00,68.2,47.2,29.86,SSE,158,17.7,21.5,47,0.00,,,0.00,WUHU216HW,2013-04-06 17:00:00,
2013-04-06 12:03:00,68.4,46.7,29.86,SSE,158,17.4,21.5,46,0.00,,,0.00,WUHU216HW,2013-04-06 17:03:00,
2013-04-06 12:05:00,68.2,47.8,29.86,SSE,158,15.0,19.7,48,0.00,,,0.00,WUHU216HW,2013-04-06 17:05:00,
2013-04-06 12:07:00,68.6,46.9,29.86,SSE,158,15.0,19.7,46,0.00,,,0.00,WUHU216HW,2013-04-06 17:07:00,
2013-04-06 12:09:00,68.8,47.6,29.85,South,180,17.2,19.7,47,0.00,,,0.00,WUHU216HW,2013-04-06 17:09:00,
2013-04-06 12:10:00,68.8,47.6,29.85,South,180,17.2,19.7,47,0.00,,,0.00,WUHU216HW,2013-04-06 17:10:00,
2013-04-06 12:11:00,68.9,47.8,29.86,South,180,15.0,19.7,47,0.00,,,0.00,WUHU216HW,2013-04-06 17:11:00,
2013-04-06 12:13:00,69.3,47.5,29.86,SSW,203,18.6,19.7,46,0.00,,,0.00,WUHU216HW,2013-04-06 17:13:00,
2013-04-06 12:15:00,69.3,47.5,29.86,SSW,203,13.4,19.7,46,0.00,,,0.00,WUHU216HW,2013-04-06 17:15:00,
2013-04-06 12:17:00,69.8,48.1,29.85,SSE,158,19.5,19.7,46,0.00,,,0.00,WUHU216HW,2013-04-06 17:17:00,
2013-04-06 12:19:00,70.2,47.8,29.85,SW,225,13.9,19.7,45,0.00,,,0.00,WUHU216HW,2013-04-06 17:19:00,
2013-04-06 12:20:00,70.2,47.8,29.85,SW,225,13.9,19.7,45,0.00,,,0.00,WUHU216HW,2013-04-06 17:20:00,
2013-04-06 12:21:00,70.0,47.0,29.85,South,180,15.4,22.1,44,0.00,,,0.00,WUHU216HW,2013-04-06 17:21:00,
2013-04-06 12:22:00,70.0,47.0,29.85,SSW,203,17.9,22.1,44,0.00,,,0.00,WUHU216HW,2013-04-06 17:22:00,
2013-04-06 12:24:00,70.2,47.2,29.85,South,180,17.2,22.1,44,0.00,,,0.00,WUHU216HW,2013-04-06 17:24:00,
2013-04-06 12:25:00,70.2,47.2,29.85,South,180,17.2,22.1,44,0.00,,,0.00,WUHU216HW,2013-04-06 17:25:00,
2013-04-06 12:26:00,70.2,46.0,29.85,South,180,18.8,22.1,42,0.00,,,0.00,WUHU216HW,2013-04-06 17:26:00,
2013-04-06 12:27:00,70.4,46.2,29.85,SSW,203,18.6,22.1,42,0.00,,,0.00,WUHU216HW,2013-04-06 17:27:00,
2013-04-06 12:29:00,70.2,46.0,29.85,South,180,19.9,22.1,42,0.00,,,0.00,WUHU216HW,2013-04-06 17:29:00,
2013-04-06 12:30:00,70.2,46.0,29.85,South,180,19.9,22.1,42,0.00,,,0.00,WUHU216HW,2013-04-06 17:30:00,
2013-04-06 12:32:00,70.2,46.5,29.85,SSW,203,16.1,27.1,43,0.00,,,0.00,WUHU216HW,2013-04-06 17:32:00,
2013-04-06 12:34:00,70.4,46.2,29.85,SSW,203,13.0,27.1,42,0.00,,,0.00,WUHU216HW,2013-04-06 17:34:00,
2013-04-06 12:36:00,70.7,46.4,29.85,SSW,203,16.8,27.1,42,0.00,,,0.00,WUHU216HW,2013-04-06 17:36:00,
2013-04-06 12:38:00,70.9,46.6,29.85,SSE,158,13.2,27.1,42,0.00,,,0.00,WUHU216HW,2013-04-06 17:38:00,
2013-04-06 12:39:00,70.9,46.6,29.85,SSW,203,13.6,27.1,42,0.00,,,0.00,WUHU216HW,2013-04-06 17:39:00,
2013-04-06 12:41:00,70.9,46.6,29.85,SSW,203,13.6,27.1,42,0.00,,,0.00,WUHU216HW,2013-04-06 17:41:00,
2013-04-06 12:43:00,70.6,46.3,29.85,South,180,20.1,20.4,42,0.00,,,0.00,WUHU216HW,2013-04-06 17:43:00,
2013-04-06 12:45:00,70.6,46.3,29.85,SSE,158,16.3,20.4,42,0.00,,,0.00,WUHU216HW,2013-04-06 17:45:00,
2013-04-06 12:46:00,70.6,46.3,29.85,SSE,158,16.3,20.4,42,0.00,,,0.00,WUHU216HW,2013-04-06 17:46:00,
2013-04-06 12:47:00,70.9,47.8,29.84,South,180,10.5,20.4,44,0.00,,,0.00,WUHU216HW,2013-04-06 17:47:00,
2013-04-06 12:48:00,71.3,47.0,29.84,South,180,18.6,20.4,42,0.00,,,0.00,WUHU216HW,2013-04-06 17:48:00,
2013-04-06 12:49:00,71.3,47.0,29.84,South,180,13.9,20.4,42,0.00,,,0.00,WUHU216HW,2013-04-06 17:49:00,
2013-04-06 12:51:00,71.3,47.0,29.84,South,180,13.9,20.4,42,0.00,,,0.00,WUHU216HW,2013-04-06 17:51:00,
2013-04-06 12:52:00,72.2,47.8,29.84,SW,225,11.2,20.1,42,0.00,,,0.00,WUHU216HW,2013-04-06 17:52:00,
2013-04-06 12:54:00,72.5,47.5,29.84,SSE,158,17.2,18.6,41,0.00,,,0.00,WUHU216HW,2013-04-06 17:54:00,
2013-04-06 12:56:00,72.5,48.1,29.84,South,180,9.2,18.6,42,0.00,,,0.00,WUHU216HW,2013-04-06 17:56:00,
2013-04-06 12:57:00,73.1,48.6,29.84,SSW,203,14.5,18.6,42,0.00,,,0.00,WUHU216HW,2013-04-06 17:57:00,
2013-04-06 12:58:00,73.3,48.2,29.84,SW,225,10.5,17.2,41,0.00,,,0.00,WUHU216HW,2013-04-06 17:58:00,
2013-04-06 13:00:00,73.4,47.7,29.84,South,180,15.0,17.2,40,0.00,,,0.00,WUHU216HW,2013-04-06 18:00:00,
2013-04-06 13:01:00,73.4,47.7,29.84,South,180,15.0,17.2,40,0.00,,,0.00,WUHU216HW,2013-04-06 18:01:00,
2013-04-06 13:02:00,73.6,47.1,29.84,SSW,203,13.9,17.2,39,0.00,,,0.00,WUHU216HW,2013-04-06 18:02:00,
2013-04-06 13:03:00,73.3,46.8,29.84,SW,225,12.1,17.2,39,0.00,,,0.00,WUHU216HW,2013-04-06 18:03:00,
2013-04-06 13:05:00,73.1,46.6,29.84,SW,225,11.0,15.0,39,0.00,,,0.00,WUHU216HW,2013-04-06 18:05:00,
2013-04-06 13:07:00,73.3,47.5,29.84,SSW,203,14.8,15.0,40,0.00,,,0.00,WUHU216HW,2013-04-06 18:07:00,
2013-04-06 13:08:00,73.3,47.5,29.84,SW,225,9.8,15.2,40,0.00,,,0.00,WUHU216HW,2013-04-06 18:08:00,
2013-04-06 13:10:00,73.6,47.1,29.84,SSW,203,12.1,15.2,39,0.00,,,0.00,WUHU216HW,2013-04-06 18:10:00,
2013-04-06 13:12:00,73.6,46.4,29.84,SW,225,16.1,16.1,38,0.00,,,0.00,WUHU216HW,2013-04-06 18:12:00,
2013-04-06 13:13:00,73.1,47.3,29.84,SSW,203,11.9,16.1,40,0.00,,,0.00,WUHU216HW,2013-04-06 18:13:00,
2013-04-06 13:15:00,73.1,47.3,29.84,South,180,9.6,16.1,40,0.00,,,0.00,WUHU216HW,2013-04-06 18:15:00,
2013-04-06 13:17:00,73.1,47.3,29.84,South,180,9.6,16.1,40,0.00,,,0.00,WUHU216HW,2013-04-06 18:17:00,
2013-04-06 13:18:00,72.5,47.5,29.84,South,180,13.6,16.1,41,0.00,,,0.00,WUHU216HW,2013-04-06 18:18:00,
2013-04-06 13:20:00,72.7,47.1,29.83,SSE,158,12.5,17.7,40,0.00,,,0.00,WUHU216HW,2013-04-06 18:20:00,
2013-04-06 13:21:00,72.7,47.1,29.83,South,180,19.0,19.0,40,0.00,,,0.00,WUHU216HW,2013-04-06 18:21:00,
2013-04-06 13:22:00,72.7,47.1,29.83,South,180,19.0,19.0,40,0.00,,,0.00,WUHU216HW,2013-04-06 18:22:00,
2013-04-06 13:23:00,72.4,46.7,29.83,SSE,158,11.4,19.0,40,0.00,,,0.00,WUHU216HW,2013-04-06 18:23:00,
2013-04-06 13:24:00,72.2,46.5,29.83,South,180,14.3,19.0,40,0.00,,,0.00,WUHU216HW,2013-04-06 18:24:00,
2013-04-06 13:26:00,71.8,46.3,29.83,SSW,203,17.7,19.0,40,0.00,,,0.00,WUHU216HW,2013-04-06 18:26:00,
2013-04-06 13:27:00,71.8,46.3,29.83,SSW,203,17.7,19.0,40,0.00,,,0.00,WUHU216HW,2013-04-06 18:27:00,
2013-04-06 13:30:00,71.5,47.1,29.83,SSW,203,12.8,23.0,42,0.00,,,0.00,WUHU216HW,2013-04-06 18:30:00,
2013-04-06 13:31:00,71.6,46.7,29.83,South,180,19.2,23.0,41,0.00,,,0.00,WUHU216HW,2013-04-06 18:31:00,
2013-04-06 13:32:00,71.6,46.7,29.83,South,180,19.2,23.0,41,0.00,,,0.00,WUHU216HW,2013-04-06 18:32:00,
2013-04-06 13:34:00,72.2,46.5,29.84,SSW,203,17.7,23.0,40,0.00,,,0.00,WUHU216HW,2013-04-06 18:34:00,
2013-04-06 13:36:00,72.5,46.9,29.84,South,180,14.8,23.0,40,0.00,,,0.00,WUHU216HW,2013-04-06 18:36:00,
2013-04-06 13:37:00,72.5,46.9,29.84,South,180,14.8,23.0,40,0.00,,,0.00,WUHU216HW,2013-04-06 18:37:00,
2013-04-06 13:39:00,73.1,46.6,29.84,SW,225,18.3,19.2,39,0.00,,,0.00,WUHU216HW,2013-04-06 18:39:00,
2013-04-06 13:42:00,73.1,46.6,29.84,SSE,158,24.4,24.4,39,0.00,,,0.00,WUHU216HW,2013-04-06 18:42:00,
2013-04-06 13:44:00,72.5,46.9,29.84,SSW,203,17.9,24.4,40,0.00,,,0.00,WUHU216HW,2013-04-06 18:44:00,
2013-04-06 13:47:00,73.1,46.6,29.83,SW,225,18.3,24.4,39,0.00,,,0.00,WUHU216HW,2013-04-06 18:47:00,
2013-04-06 13:49:00,73.3,47.5,29.84,South,180,9.8,24.4,40,0.00,,,0.00,WUHU216HW,2013-04-06 18:49:00,
2013-04-06 13:52:00,73.1,47.3,29.84,SSE,158,10.7,18.3,40,0.00,,,0.00,WUHU216HW,2013-04-06 18:52:00,
2013-04-06 13:53:00,72.7,46.3,29.84,SSE,158,14.3,18.3,39,0.00,,,0.00,WUHU216HW,2013-04-06 18:53:00,
2013-04-06 13:55:00,72.0,46.5,29.83,SSE,158,17.9,18.3,40,0.00,,,0.00,WUHU216HW,2013-04-06 18:55:00,
2013-04-06 13:57:00,72.0,46.5,29.83,SE,135,13.6,18.3,40,0.00,,,0.00,WUHU216HW,2013-04-06 18:57:00,
2013-04-06 14:00:00,72.9,47.3,29.84,SSE,158,11.9,18.3,40,0.00,,,0.00,WUHU216HW,2013-04-06 19:00:00,
2013-04-06 14:02:00,73.4,47.7,29.84,SSW,203,17.4,18.3,40,0.00,,,0.00,WUHU216HW,2013-04-06 19:02:00,
2013-04-06 14:08:00,73.1,47.3,29.83,SSE,158,17.0,19.9,40,0.00,,,0.00,WUHU216HW,2013-04-06 19:08:00,
2013-04-06 14:09:00,72.7,47.1,29.83,South,180,11.4,19.9,40,0.00,,,0.00,WUHU216HW,2013-04-06 19:09:00,
2013-04-06 14:12:00,72.9,47.8,29.83,SSW,203,9.2,19.9,41,0.00,,,0.00,WUHU216HW,2013-04-06 19:12:00,
2013-04-06 14:13:00,72.9,47.8,29.83,SSW,203,9.2,19.9,41,0.00,,,0.00,WUHU216HW,2013-04-06 19:13:00,
2013-04-06 14:14:00,73.3,47.5,29.83,SSW,203,12.1,19.0,40,0.00,,,0.00,WUHU216HW,2013-04-06 19:14:00,
2013-04-06 14:17:00,73.8,47.3,29.83,South,180,16.3,19.0,39,0.00,,,0.00,WUHU216HW,2013-04-06 19:17:00,
2013-04-06 14:18:00,73.8,47.3,29.83,South,180,16.3,19.0,39,0.00,,,0.00,WUHU216HW,2013-04-06 19:18:00,
2013-04-06 14:22:00,74.2,47.6,29.83,South,180,13.4,19.2,39,0.00,,,0.00,WUHU216HW,2013-04-06 19:22:00,
2013-04-06 14:23:00,74.2,47.6,29.83,South,180,13.4,19.2,39,0.00,,,0.00,WUHU216HW,2013-04-06 19:23:00,
2013-04-06 14:25:00,74.0,47.4,29.83,SSE,158,15.4,19.9,39,0.00,,,0.00,WUHU216HW,2013-04-06 19:25:00,
2013-04-06 14:28:00,73.6,47.9,29.83,South,180,10.7,19.9,40,0.00,,,0.00,WUHU216HW,2013-04-06 19:28:00,
2013-04-06 14:29:00,74.0,47.4,29.83,SSE,158,13.4,19.9,39,0.00,,,0.00,WUHU216HW,2013-04-06 19:29:00,
2013-04-06 14:30:00,74.2,47.6,29.83,SSW,203,15.4,19.9,39,0.00,,,0.00,WUHU216HW,2013-04-06 19:30:00,
2013-04-06 14:32:00,74.0,46.7,29.83,SSW,203,12.8,19.9,38,0.00,,,0.00,WUHU216HW,2013-04-06 19:32:00,
2013-04-06 14:33:00,74.0,46.7,29.83,SSW,203,12.8,19.9,38,0.00,,,0.00,WUHU216HW,2013-04-06 19:33:00,
2013-04-06 14:34:00,74.2,47.6,29.82,SW,225,10.5,17.4,39,0.00,,,0.00,WUHU216HW,2013-04-06 19:34:00,
2013-04-06 14:37:00,74.2,47.6,29.82,WSW,248,13.6,17.4,39,0.00,,,0.00,WUHU216HW,2013-04-06 19:37:00,
2013-04-06 14:39:00,74.2,47.6,29.82,WSW,248,13.6,17.4,39,0.00,,,0.00,WUHU216HW,2013-04-06 19:39:00,
2013-04-06 14:40:00,74.0,47.4,29.83,South,180,11.2,17.4,39,0.00,,,0.00,WUHU216HW,2013-04-06 19:40:00,
2013-04-06 14:41:00,74.2,46.8,29.82,SSW,203,17.9,17.9,38,0.00,,,0.00,WUHU216HW,2013-04-06 19:41:00,
2013-04-06 14:42:00,74.2,47.6,29.82,SSW,203,14.1,17.9,39,0.00,,,0.00,WUHU216HW,2013-04-06 19:42:00,
2013-04-06 14:44:00,74.2,47.6,29.82,SSW,203,14.1,17.9,39,0.00,,,0.00,WUHU216HW,2013-04-06 19:44:00,
2013-04-06 14:46:00,74.7,47.4,29.82,SSE,158,18.8,18.8,38,0.00,,,0.00,WUHU216HW,2013-04-06 19:46:00,
2013-04-06 14:47:00,74.3,47.0,29.82,SW,225,15.0,18.8,38,0.00,,,0.00,WUHU216HW,2013-04-06 19:47:00,
2013-04-06 14:49:00,74.3,47.0,29.82,SW,225,15.0,18.8,38,0.00,,,0.00,WUHU216HW,2013-04-06 19:49:00,
2013-04-06 14:50:00,74.0,47.4,29.82,WSW,248,13.6,18.8,39,0.00,,,0.00,WUHU216HW,2013-04-06 19:50:00,
2013-04-06 14:52:00,74.3,47.8,29.82,SSE,158,11.2,18.8,39,0.00,,,0.00,WUHU216HW,2013-04-06 19:52:00,
2013-04-06 14:53:00,74.7,47.4,29.82,SSW,203,15.7,18.8,38,0.00,,,0.00,WUHU216HW,2013-04-06 19:53:00,
2013-04-06 14:54:00,74.7,47.4,29.82,SSW,203,15.7,18.8,38,0.00,,,0.00,WUHU216HW,2013-04-06 19:54:00,
2013-04-06 14:57:00,74.9,46.7,29.82,SSW,203,11.2,16.3,37,0.00,,,0.00,WUHU216HW,2013-04-06 19:57:00,
2013-04-06 15:00:00,75.1,47.6,29.82,South,180,14.3,15.7,38,0.00,,,0.00,WUHU216HW,2013-04-06 20:00:00,
2013-04-06 15:03:00,74.7,47.4,29.82,WSW,248,12.8,16.8,38,0.00,,,0.00,WUHU216HW,2013-04-06 20:03:00,
2013-04-06 15:04:00,74.7,47.4,29.81,SSW,203,16.8,16.8,38,0.00,,,0.00,WUHU216HW,2013-04-06 20:04:00,
2013-04-06 15:05:00,74.7,47.4,29.81,SW,225,13.0,16.8,38,0.00,,,0.00,WUHU216HW,2013-04-06 20:05:00,
2013-04-06 15:07:00,74.7,48.1,29.81,SSE,158,8.7,16.8,39,0.00,,,0.00,WUHU216HW,2013-04-06 20:07:00,
2013-04-06 15:09:00,74.9,48.2,29.81,SW,225,11.4,16.8,39,0.00,,,0.00,WUHU216HW,2013-04-06 20:09:00,
2013-04-06 15:10:00,74.9,48.2,29.81,SW,225,11.4,16.8,39,0.00,,,0.00,WUHU216HW,2013-04-06 20:10:00,
2013-04-06 15:13:00,75.6,48.2,29.82,SW,225,11.2,16.8,38,0.00,,,0.00,WUHU216HW,2013-04-06 20:13:00,
2013-04-06 15:15:00,75.4,48.0,29.82,SSW,203,7.8,12.5,38,0.00,,,0.00,WUHU216HW,2013-04-06 20:15:00,
2013-04-06 15:17:00,74.7,47.4,29.81,WSW,248,10.5,13.4,38,0.00,,,0.00,WUHU216HW,2013-04-06 20:17:00,
2013-04-06 15:18:00,74.7,48.1,29.81,SW,225,11.9,13.4,39,0.00,,,0.00,WUHU216HW,2013-04-06 20:18:00,
2013-04-06 15:20:00,74.7,47.4,29.81,SSW,203,12.5,13.4,38,0.00,,,0.00,WUHU216HW,2013-04-06 20:20:00,
2013-04-06 15:22:00,74.5,47.2,29.81,SW,225,8.1,13.4,38,0.00,,,0.00,WUHU216HW,2013-04-06 20:22:00,
2013-04-06 15:25:00,74.7,47.4,29.81,SSW,203,10.1,13.4,38,0.00,,,0.00,WUHU216HW,2013-04-06 20:25:00,
2013-04-06 15:26:00,75.1,48.4,29.81,WSW,248,7.2,12.8,39,0.00,,,0.00,WUHU216HW,2013-04-06 20:26:00,
2013-04-06 15:28:00,75.6,48.2,29.81,SW,225,13.4,13.4,38,0.00,,,0.00,WUHU216HW,2013-04-06 20:28:00,
2013-04-06 15:30:00,75.6,47.3,29.81,WSW,248,12.8,13.4,37,0.00,,,0.00,WUHU216HW,2013-04-06 20:30:00,
2013-04-06 15:32:00,75.8,47.5,29.81,SW,225,6.3,13.4,37,0.00,,,0.00,WUHU216HW,2013-04-06 20:32:00,
2013-04-06 15:33:00,75.6,47.3,29.81,SSW,203,10.7,13.4,37,0.00,,,0.00,WUHU216HW,2013-04-06 20:33:00,
2013-04-06 15:35:00,75.2,47.8,29.81,SSW,203,13.2,15.0,38,0.00,,,0.00,WUHU216HW,2013-04-06 20:35:00,
2013-04-06 15:37:00,75.4,47.3,29.81,SW,225,7.8,15.7,37,0.00,,,0.00,WUHU216HW,2013-04-06 20:37:00,
2013-04-06 15:39:00,75.6,48.2,29.81,South,180,8.9,15.7,38,0.00,,,0.00,WUHU216HW,2013-04-06 20:39:00,
2013-04-06 15:41:00,75.6,48.2,29.81,South,180,8.9,15.7,38,0.00,,,0.00,WUHU216HW,2013-04-06 20:41:00,
2013-04-06 15:43:00,75.6,47.3,29.81,SSW,203,9.4,15.7,37,0.00,,,0.00,WUHU216HW,2013-04-06 20:43:00,
2013-04-06 15:45:00,75.6,48.2,29.81,South,180,10.7,15.7,38,0.00,,,0.00,WUHU216HW,2013-04-06 20:45:00,
2013-04-06 15:46:00,75.6,48.2,29.81,South,180,10.7,15.7,38,0.00,,,0.00,WUHU216HW,2013-04-06 20:46:00,
2013-04-06 15:48:00,75.4,47.3,29.81,SSW,203,12.1,17.2,37,0.00,,,0.00,WUHU216HW,2013-04-06 20:48:00,
2013-04-06 15:49:00,75.6,47.3,29.81,South,180,7.6,17.2,37,0.00,,,0.00,WUHU216HW,2013-04-06 20:49:00,
2013-04-06 15:51:00,75.6,47.3,29.81,South,180,7.6,17.2,37,0.00,,,0.00,WUHU216HW,2013-04-06 20:51:00,
2013-04-06 15:53:00,75.6,47.3,29.81,SSW,203,14.3,17.2,37,0.00,,,0.00,WUHU216HW,2013-04-06 20:53:00,
2013-04-06 15:55:00,75.8,47.5,29.81,WSW,248,10.5,17.2,37,0.00,,,0.00,WUHU216HW,2013-04-06 20:55:00,
2013-04-06 15:56:00,75.8,47.5,29.81,WSW,248,10.5,17.2,37,0.00,,,0.00,WUHU216HW,2013-04-06 20:56:00,
2013-04-06 15:57:00,75.8,47.5,29.80,SSW,203,9.8,14.3,37,0.00,,,0.00,WUHU216HW,2013-04-06 20:57:00,
2013-04-06 16:00:00,75.6,48.2,29.80,SW,225,8.1,14.3,38,0.00,,,0.00,WUHU216HW,2013-04-06 21:00:00,
2013-04-06 16:01:00,75.6,48.2,29.80,SW,225,8.1,14.3,38,0.00,,,0.00,WUHU216HW,2013-04-06 21:01:00,
2013-04-06 16:02:00,75.6,47.3,29.80,South,180,16.3,16.3,37,0.00,,,0.00,WUHU216HW,2013-04-06 21:02:00,
2013-04-06 16:04:00,75.4,47.3,29.80,SSE,158,12.1,16.3,37,0.00,,,0.00,WUHU216HW,2013-04-06 21:04:00,
2013-04-06 16:06:00,75.8,47.5,29.80,SSW,203,7.6,16.3,37,0.00,,,0.00,WUHU216HW,2013-04-06 21:06:00,
2013-04-06 16:07:00,76.0,47.7,29.81,SSW,203,6.5,16.3,37,0.00,,,0.00,WUHU216HW,2013-04-06 21:07:00,
2013-04-06 16:11:00,76.1,47.9,29.80,South,180,10.5,16.3,37,0.00,,,0.00,WUHU216HW,2013-04-06 21:11:00,
2013-04-06 16:13:00,76.1,47.9,29.80,SSW,203,10.1,12.1,37,0.00,,,0.00,WUHU216HW,2013-04-06 21:13:00,
2013-04-06 16:14:00,76.1,47.9,29.80,SW,225,12.1,12.1,37,0.00,,,0.00,WUHU216HW,2013-04-06 21:14:00,
2013-04-06 16:16:00,76.1,47.9,29.80,SW,225,7.8,12.1,37,0.00,,,0.00,WUHU216HW,2013-04-06 21:16:00,
2013-04-06 16:19:00,76.3,47.3,29.80,SSW,203,9.6,12.1,36,0.00,,,0.00,WUHU216HW,2013-04-06 21:19:00,
2013-04-06 16:20:00,76.1,47.9,29.80,SSW,203,9.4,12.1,37,0.00,,,0.00,WUHU216HW,2013-04-06 21:20:00,
2013-04-06 16:21:00,76.1,47.9,29.80,SSW,203,9.4,12.1,37,0.00,,,0.00,WUHU216HW,2013-04-06 21:21:00,
2013-04-06 16:22:00,76.1,46.4,29.80,SSE,158,13.6,13.6,35,0.00,,,0.00,WUHU216HW,2013-04-06 21:22:00,
2013-04-06 16:24:00,76.0,47.7,29.80,SSW,203,12.1,13.6,37,0.00,,,0.00,WUHU216HW,2013-04-06 21:24:00,
2013-04-06 16:25:00,76.0,47.0,29.80,SSW,203,8.7,13.6,36,0.00,,,0.00,WUHU216HW,2013-04-06 21:25:00,
2013-04-06 16:26:00,76.0,47.0,29.80,SSW,203,8.7,13.6,36,0.00,,,0.00,WUHU216HW,2013-04-06 21:26:00,
2013-04-06 16:27:00,76.0,47.7,29.80,SSW,203,13.6,13.6,37,0.00,,,0.00,WUHU216HW,2013-04-06 21:27:00,
2013-04-06 16:29:00,75.4,47.3,29.80,South,180,11.4,15.0,37,0.00,,,0.00,WUHU216HW,2013-04-06 21:29:00,
2013-04-06 16:31:00,75.2,47.8,29.79,South,180,13.4,17.4,38,0.00,,,0.00,WUHU216HW,2013-04-06 21:31:00,
2013-04-06 16:32:00,75.2,47.8,29.79,South,180,13.4,17.4,38,0.00,,,0.00,WUHU216HW,2013-04-06 21:32:00,
2013-04-06 16:34:00,75.4,47.3,29.79,SSW,203,16.1,17.4,37,0.00,,,0.00,WUHU216HW,2013-04-06 21:34:00,
2013-04-06 16:36:00,75.4,47.3,29.79,SSW,203,12.1,17.4,37,0.00,,,0.00,WUHU216HW,2013-04-06 21:36:00,
2013-04-06 16:37:00,75.4,47.3,29.79,SSW,203,12.1,17.4,37,0.00,,,0.00,WUHU216HW,2013-04-06 21:37:00,
2013-04-06 16:40:00,75.4,47.3,29.80,SSW,203,13.9,16.1,37,0.00,,,0.00,WUHU216HW,2013-04-06 21:40:00,
2013-04-06 16:41:00,75.6,48.2,29.79,SW,225,7.8,16.1,38,0.00,,,0.00,WUHU216HW,2013-04-06 21:41:00,
2013-04-06 16:42:00,75.6,48.2,29.79,SW,225,7.8,16.1,38,0.00,,,0.00,WUHU216HW,2013-04-06 21:42:00,
2013-04-06 16:44:00,75.2,47.1,29.79,SSW,203,12.8,15.4,37,0.00,,,0.00,WUHU216HW,2013-04-06 21:44:00,
2013-04-06 16:46:00,75.2,47.1,29.80,SSE,158,9.8,15.4,37,0.00,,,0.00,WUHU216HW,2013-04-06 21:46:00,
2013-04-06 16:47:00,75.2,47.1,29.80,SSE,158,9.8,15.4,37,0.00,,,0.00,WUHU216HW,2013-04-06 21:47:00,
2013-04-06 16:48:00,75.2,47.1,29.80,SSW,203,6.0,15.2,37,0.00,,,0.00,WUHU216HW,2013-04-06 21:48:00,
2013-04-06 16:52:00,75.6,47.3,29.79,SSE,158,9.6,15.2,37,0.00,,,0.00,WUHU216HW,2013-04-06 21:52:00,
2013-04-06 16:55:00,76.0,47.7,29.79,SSW,203,12.8,13.6,37,0.00,,,0.00,WUHU216HW,2013-04-06 21:55:00,
2013-04-06 16:56:00,76.1,47.1,29.80,WSW,248,10.5,13.6,36,0.00,,,0.00,WUHU216HW,2013-04-06 21:56:00,
2013-04-06 16:57:00,76.1,47.1,29.80,WSW,248,10.5,13.6,36,0.00,,,0.00,WUHU216HW,2013-04-06 21:57:00,
2013-04-06 17:00:00,76.5,48.2,29.79,WNW,293,4.0,13.6,37,0.00,,,0.00,WUHU216HW,2013-04-06 22:00:00,
2013-04-06 17:02:00,76.7,46.8,29.79,SW,225,7.6,13.6,35,0.00,,,0.00,WUHU216HW,2013-04-06 22:02:00,
2013-04-06 17:04:00,76.9,48.5,29.79,SW,225,6.9,12.8,37,0.00,,,0.00,WUHU216HW,2013-04-06 22:04:00,
2013-04-06 17:06:00,77.0,47.2,29.80,South,180,6.9,10.5,35,0.00,,,0.00,WUHU216HW,2013-04-06 22:06:00,
2013-04-06 17:08:00,77.2,48.9,29.80,West,270,6.3,8.7,37,0.00,,,0.00,WUHU216HW,2013-04-06 22:08:00,
2013-04-06 17:09:00,77.0,47.2,29.80,WSW,248,13.9,13.9,35,0.00,,,0.00,WUHU216HW,2013-04-06 22:09:00,
2013-04-06 17:12:00,76.3,46.5,29.80,SSW,203,9.8,13.9,35,0.00,,,0.00,WUHU216HW,2013-04-06 22:12:00,
2013-04-06 17:13:00,76.3,46.5,29.80,SSW,203,9.8,13.9,35,0.00,,,0.00,WUHU216HW,2013-04-06 22:13:00,
2013-04-06 17:14:00,76.0,47.7,29.80,South,180,6.0,13.9,37,0.00,,,0.00,WUHU216HW,2013-04-06 22:14:00,
2013-04-06 17:15:00,76.0,47.7,29.80,WSW,248,3.1,13.9,37,0.00,,,0.00,WUHU216HW,2013-04-06 22:15:00,
2013-04-06 17:18:00,76.0,47.7,29.80,SW,225,9.2,13.9,37,0.00,,,0.00,WUHU216HW,2013-04-06 22:18:00,
2013-04-06 17:21:00,76.0,47.7,29.80,WNW,293,8.1,12.5,37,0.00,,,0.00,WUHU216HW,2013-04-06 22:21:00,
2013-04-06 17:23:00,76.0,47.7,29.80,WNW,293,8.1,12.5,37,0.00,,,0.00,WUHU216HW,2013-04-06 22:23:00,
2013-04-06 17:25:00,74.9,46.7,29.81,West,270,13.4,13.4,37,0.00,,,0.00,WUHU216HW,2013-04-06 22:25:00,
2013-04-06 17:27:00,74.5,47.2,29.81,WSW,248,11.4,13.9,38,0.00,,,0.00,WUHU216HW,2013-04-06 22:27:00,
2013-04-06 17:28:00,74.5,47.2,29.81,WSW,248,11.4,13.9,38,0.00,,,0.00,WUHU216HW,2013-04-06 22:28:00,
2013-04-06 17:29:00,74.7,47.4,29.81,SSW,203,8.5,13.9,38,0.00,,,0.00,WUHU216HW,2013-04-06 22:29:00,
2013-04-06 17:31:00,74.7,47.4,29.81,WSW,248,6.9,13.9,38,0.00,,,0.00,WUHU216HW,2013-04-06 22:31:00,
2013-04-06 17:33:00,74.7,47.4,29.81,WSW,248,6.9,13.9,38,0.00,,,0.00,WUHU216HW,2013-04-06 22:33:00,
2013-04-06 17:34:00,74.9,47.5,29.81,South,180,4.9,13.9,38,0.00,,,0.00,WUHU216HW,2013-04-06 22:34:00,
2013-04-06 17:36:00,74.9,46.7,29.81,WSW,248,8.3,11.4,37,0.00,,,0.00,WUHU216HW,2013-04-06 22:36:00,
2013-04-06 17:37:00,74.9,47.5,29.81,SSW,203,9.2,9.8,38,0.00,,,0.00,WUHU216HW,2013-04-06 22:37:00,
2013-04-06 17:38:00,74.9,47.5,29.81,SSW,203,9.2,9.8,38,0.00,,,0.00,WUHU216HW,2013-04-06 22:38:00,
2013-04-06 17:40:00,74.5,47.2,29.81,WSW,248,10.7,12.1,38,0.00,,,0.00,WUHU216HW,2013-04-06 22:40:00,
2013-04-06 17:41:00,74.5,47.2,29.81,WSW,248,6.9,12.1,38,0.00,,,0.00,WUHU216HW,2013-04-06 22:41:00,
2013-04-06 17:43:00,74.5,47.2,29.81,WSW,248,9.2,12.1,38,0.00,,,0.00,WUHU216HW,2013-04-06 22:43:00,
2013-04-06 17:44:00,74.5,47.2,29.81,WSW,248,9.2,12.1,38,0.00,,,0.00,WUHU216HW,2013-04-06 22:44:00,
2013-04-06 17:45:00,74.5,47.2,29.81,WSW,248,12.8,12.8,38,0.00,,,0.00,WUHU216HW,2013-04-06 22:45:00,
2013-04-06 17:46:00,74.3,47.0,29.81,SSW,203,8.7,12.8,38,0.00,,,0.00,WUHU216HW,2013-04-06 22:46:00,
2013-04-06 17:49:00,74.0,46.7,29.81,WSW,248,9.8,12.8,38,0.00,,,0.00,WUHU216HW,2013-04-06 22:49:00,
2013-04-06 17:50:00,73.8,47.3,29.82,WSW,248,9.2,12.8,39,0.00,,,0.00,WUHU216HW,2013-04-06 22:50:00,
2013-04-06 17:52:00,73.6,47.1,29.82,SW,225,10.7,12.8,39,0.00,,,0.00,WUHU216HW,2013-04-06 22:52:00,
2013-04-06 17:53:00,73.4,47.0,29.81,WSW,248,11.6,12.8,39,0.00,,,0.00,WUHU216HW,2013-04-06 22:53:00,
2013-04-06 17:54:00,73.4,47.0,29.81,WSW,248,11.6,12.8,39,0.00,,,0.00,WUHU216HW,2013-04-06 22:54:00,
2013-04-06 17:55:00,73.1,47.3,29.81,WSW,248,8.5,11.6,40,0.00,,,0.00,WUHU216HW,2013-04-06 22:55:00,
2013-04-06 17:57:00,72.9,47.3,29.82,WSW,248,10.5,11.6,40,0.00,,,0.00,WUHU216HW,2013-04-06 22:57:00,
2013-04-06 17:59:00,72.7,47.1,29.81,SW,225,12.5,12.5,40,0.00,,,0.00,WUHU216HW,2013-04-06 22:59:00,
2013-04-06 18:00:00,72.5,46.9,29.81,SW,225,7.8,12.5,40,0.00,,,0.00,WUHU216HW,2013-04-06 23:00:00,
2013-04-06 18:02:00,72.4,47.4,29.82,SW,225,5.8,12.5,41,0.00,,,0.00,WUHU216HW,2013-04-06 23:02:00,
2013-04-06 18:04:00,72.4,47.4,29.81,SW,225,6.0,12.5,41,0.00,,,0.00,WUHU216HW,2013-04-06 23:04:00,
2013-04-06 18:05:00,72.4,47.4,29.82,WSW,248,5.8,12.5,41,0.00,,,0.00,WUHU216HW,2013-04-06 23:05:00,
2013-04-06 18:07:00,72.4,47.4,29.81,SW,225,5.4,12.5,41,0.00,,,0.00,WUHU216HW,2013-04-06 23:07:00,
2013-04-06 18:10:00,72.4,47.4,29.81,WSW,248,3.4,10.5,41,0.00,,,0.00,WUHU216HW,2013-04-06 23:10:00,
2013-04-06 18:12:00,72.5,47.5,29.82,SSW,203,10.7,10.7,41,0.00,,,0.00,WUHU216HW,2013-04-06 23:12:00,
2013-04-06 18:13:00,72.4,47.4,29.82,SSW,203,6.5,10.7,41,0.00,,,0.00,WUHU216HW,2013-04-06 23:13:00,
2013-04-06 18:15:00,72.4,47.4,29.82,SSW,203,6.5,10.7,41,0.00,,,0.00,WUHU216HW,2013-04-06 23:15:00,
2013-04-06 18:18:00,72.0,47.6,29.82,SW,225,4.7,10.7,42,0.00,,,0.00,WUHU216HW,2013-04-06 23:18:00,
2013-04-06 18:20:00,72.0,47.6,29.82,SW,225,4.7,10.7,42,0.00,,,0.00,WUHU216HW,2013-04-06 23:20:00,
2013-04-06 18:21:00,71.6,47.3,29.82,SSW,203,6.3,10.7,42,0.00,,,0.00,WUHU216HW,2013-04-06 23:21:00,
2013-04-06 18:22:00,71.6,47.3,29.82,SW,225,6.7,9.2,42,0.00,,,0.00,WUHU216HW,2013-04-06 23:22:00,
2013-04-06 18:25:00,71.5,47.1,29.82,SW,225,3.4,9.2,42,0.00,,,0.00,WUHU216HW,2013-04-06 23:25:00,
2013-04-06 18:26:00,71.3,47.0,29.82,SW,225,4.9,6.9,42,0.00,,,0.00,WUHU216HW,2013-04-06 23:26:00,
2013-04-06 18:28:00,71.3,47.0,29.82,South,180,10.5,10.5,42,0.00,,,0.00,WUHU216HW,2013-04-06 23:28:00,
2013-04-06 18:29:00,70.9,46.6,29.82,SSW,203,11.2,11.2,42,0.00,,,0.00,WUHU216HW,2013-04-06 23:29:00,
2013-04-06 18:30:00,70.9,46.6,29.82,SSW,203,11.2,11.2,42,0.00,,,0.00,WUHU216HW,2013-04-06 23:30:00,
2013-04-06 18:31:00,70.9,47.3,29.83,SW,225,7.4,11.2,43,0.00,,,0.00,WUHU216HW,2013-04-06 23:31:00,
2013-04-06 18:33:00,70.9,47.3,29.83,WSW,248,6.9,11.2,43,0.00,,,0.00,WUHU216HW,2013-04-06 23:33:00,
2013-04-06 18:34:00,70.9,47.3,29.83,SW,225,6.9,11.2,43,0.00,,,0.00,WUHU216HW,2013-04-06 23:34:00,
2013-04-06 18:35:00,70.9,47.3,29.83,SW,225,6.9,11.2,43,0.00,,,0.00,WUHU216HW,2013-04-06 23:35:00,
2013-04-06 18:36:00,70.9,47.3,29.83,SW,225,6.0,11.2,43,0.00,,,0.00,WUHU216HW,2013-04-06 23:36:00,
2013-04-06 18:37:00,70.6,46.9,29.83,WSW,248,2.5,11.2,43,0.00,,,0.00,WUHU216HW,2013-04-06 23:37:00,
2013-04-06 18:39:00,70.6,47.5,29.83,SSW,203,2.5,7.4,44,0.00,,,0.00,WUHU216HW,2013-04-06 23:39:00,
2013-04-06 18:40:00,70.6,47.5,29.83,SSW,203,2.5,7.4,44,0.00,,,0.00,WUHU216HW,2013-04-06 23:40:00,
2013-04-06 18:42:00,70.6,47.5,29.83,WSW,248,5.4,6.9,44,0.00,,,0.00,WUHU216HW,2013-04-06 23:42:00,
2013-04-06 18:44:00,70.6,47.5,29.83,SW,225,8.9,8.9,44,0.00,,,0.00,WUHU216HW,2013-04-06 23:44:00,
2013-04-06 18:45:00,70.6,47.5,29.83,SW,225,8.9,8.9,44,0.00,,,0.00,WUHU216HW,2013-04-06 23:45:00,
2013-04-06 18:47:00,70.4,47.4,29.83,West,270,4.5,8.9,44,0.00,,,0.00,WUHU216HW,2013-04-06 23:47:00,
2013-04-06 18:48:00,70.2,47.2,29.83,West,270,5.4,8.9,44,0.00,,,0.00,WUHU216HW,2013-04-06 23:48:00,
2013-04-06 18:50:00,70.2,47.8,29.83,WSW,248,3.6,8.9,45,0.00,,,0.00,WUHU216HW,2013-04-06 23:50:00,
2013-04-06 18:52:00,70.2,47.8,29.83,WSW,248,4.3,8.9,45,0.00,,,0.00,WUHU216HW,2013-04-06 23:52:00,
2013-04-06 18:53:00,70.0,47.6,29.83,West,270,5.4,5.4,45,0.00,,,0.00,WUHU216HW,2013-04-06 23:53:00,
2013-04-06 18:56:00,70.0,47.6,29.83,WSW,248,4.0,5.4,45,0.00,,,0.00,WUHU216HW,2013-04-06 23:56:00,
2013-04-06 18:57:00,70.0,47.6,29.83,West,270,3.4,5.4,45,0.00,,,0.00,WUHU216HW,2013-04-06 23:57:00,
2013-04-06 18:59:00,69.8,47.4,29.83,SSW,203,8.3,8.3,45,0.00,,,0.00,WUHU216HW,2013-04-06 23:59:00,
2013-04-06 19:01:00,69.8,47.4,29.83,SSW,203,8.3,8.3,45,0.00,,,0.00,WUHU216HW,2013-04-07 00:01:00,
2013-04-06 19:03:00,69.8,47.4,29.84,SW,225,8.5,8.5,45,0.00,,,0.00,WUHU216HW,2013-04-07 00:03:00,
2013-04-06 19:04:00,69.8,48.1,29.84,SSW,203,4.3,8.5,46,0.00,,,0.00,WUHU216HW,2013-04-07 00:04:00,
2013-04-06 19:06:00,69.8,47.4,29.84,SW,225,7.2,9.8,45,0.00,,,0.00,WUHU216HW,2013-04-07 00:06:00,
2013-04-06 19:07:00,69.7,47.9,29.84,SW,225,4.0,9.8,46,0.00,,,0.00,WUHU216HW,2013-04-07 00:07:00,
2013-04-06 19:09:00,69.7,47.3,29.83,WSW,248,6.9,9.8,45,0.00,,,0.00,WUHU216HW,2013-04-07 00:09:00,
2013-04-06 19:11:00,69.7,47.9,29.83,SSW,203,5.8,9.8,46,0.00,,,0.00,WUHU216HW,2013-04-07 00:11:00,
2013-04-06 19:12:00,69.5,47.7,29.83,SW,225,9.2,9.8,46,0.00,,,0.00,WUHU216HW,2013-04-07 00:12:00,
2013-04-06 19:14:00,69.5,47.7,29.83,SSW,203,7.8,9.8,46,0.00,,,0.00,WUHU216HW,2013-04-07 00:14:00,
2013-04-06 19:16:00,69.3,47.5,29.83,SSW,203,4.0,9.2,46,0.00,,,0.00,WUHU216HW,2013-04-07 00:16:00,
2013-04-06 19:17:00,69.3,47.5,29.83,SSW,203,4.0,9.2,46,0.00,,,0.00,WUHU216HW,2013-04-07 00:17:00,
2013-04-06 19:19:00,69.1,47.3,29.83,SW,225,7.4,9.2,46,0.00,,,0.00,WUHU216HW,2013-04-07 00:19:00,
2013-04-06 19:20:00,69.1,47.3,29.83,SW,225,7.8,9.2,46,0.00,,,0.00,WUHU216HW,2013-04-07 00:20:00,
2013-04-06 19:22:00,69.1,47.3,29.83,SW,225,7.8,9.2,46,0.00,,,0.00,WUHU216HW,2013-04-07 00:22:00,
2013-04-06 19:23:00,68.9,47.3,29.83,SW,225,5.8,7.8,46,0.00,,,0.00,WUHU216HW,2013-04-07 00:23:00,
2013-04-06 19:25:00,68.8,47.1,29.84,WSW,248,5.8,7.8,46,0.00,,,0.00,WUHU216HW,2013-04-07 00:25:00,
2013-04-06 19:27:00,68.8,47.1,29.84,WSW,248,5.8,7.8,46,0.00,,,0.00,WUHU216HW,2013-04-07 00:27:00,
2013-04-06 19:30:00,68.6,46.9,29.84,SSW,203,5.6,9.6,46,0.00,,,0.00,WUHU216HW,2013-04-07 00:30:00,
2013-04-06 19:32:00,68.6,46.9,29.84,West,270,3.1,9.6,46,0.00,,,0.00,WUHU216HW,2013-04-07 00:32:00,
2013-04-06 19:33:00,68.6,46.9,29.84,SW,225,4.5,9.6,46,0.00,,,0.00,WUHU216HW,2013-04-07 00:33:00,
2013-04-06 19:34:00,68.4,46.7,29.84,SSW,203,1.1,9.6,46,0.00,,,0.00,WUHU216HW,2013-04-07 00:34:00,
2013-04-06 19:36:00,68.2,46.5,29.84,SW,225,6.3,6.3,46,0.00,,,0.00,WUHU216HW,2013-04-07 00:36:00,
2013-04-06 19:37:00,68.2,46.5,29.84,SW,225,6.3,6.3,46,0.00,,,0.00,WUHU216HW,2013-04-07 00:37:00,
2013-04-06 19:38:00,68.0,46.5,29.84,SW,225,6.3,6.3,46,0.00,,,0.00,WUHU216HW,2013-04-07 00:38:00,
2013-04-06 19:39:00,68.0,46.5,29.84,SSW,203,5.4,6.3,46,0.00,,,0.00,WUHU216HW,2013-04-07 00:39:00,
2013-04-06 19:41:00,68.0,47.0,29.84,SSW,203,3.8,6.3,47,0.00,,,0.00,WUHU216HW,2013-04-07 00:41:00,
2013-04-06 19:42:00,68.0,47.0,29.84,SSW,203,3.8,6.3,47,0.00,,,0.00,WUHU216HW,2013-04-07 00:42:00,
2013-04-06 19:44:00,67.9,46.8,29.84,SW,225,4.0,6.5,47,0.00,,,0.00,WUHU216HW,2013-04-07 00:44:00,
2013-04-06 19:46:00,67.9,46.8,29.84,WSW,248,3.4,6.5,47,0.00,,,0.00,WUHU216HW,2013-04-07 00:46:00,
2013-04-06 19:48:00,67.9,46.8,29.84,WSW,248,3.4,6.5,47,0.00,,,0.00,WUHU216HW,2013-04-07 00:48:00,
2013-04-06 19:49:00,67.7,46.7,29.84,SW,225,7.6,9.8,47,0.00,,,0.00,WUHU216HW,2013-04-07 00:49:00,
2013-04-06 19:51:00,67.7,46.7,29.84,SSW,203,4.7,9.8,47,0.00,,,0.00,WUHU216HW,2013-04-07 00:51:00,
2013-04-06 19:53:00,67.7,46.7,29.84,SSW,203,4.7,9.8,47,0.00,,,0.00,WUHU216HW,2013-04-07 00:53:00,
2013-04-06 19:54:00,67.7,46.7,29.84,SSW,203,6.0,9.8,47,0.00,,,0.00,WUHU216HW,2013-04-07 00:54:00,
2013-04-06 19:57:00,67.7,46.7,29.84,SSW,203,5.8,9.8,47,0.00,,,0.00,WUHU216HW,2013-04-07 00:57:00,
2013-04-06 19:58:00,67.7,46.7,29.84,SSW,203,5.8,9.8,47,0.00,,,0.00,WUHU216HW,2013-04-07 00:58:00,
2013-04-06 20:02:00,67.1,46.8,29.84,SW,225,4.0,7.2,48,0.00,,,0.00,WUHU216HW,2013-04-07 01:02:00,
2013-04-06 20:03:00,67.1,46.8,29.84,SSW,203,4.7,7.2,48,0.00,,,0.00,WUHU216HW,2013-04-07 01:03:00,
2013-04-06 20:05:00,67.0,46.6,29.84,SW,225,4.7,5.8,48,0.00,,,0.00,WUHU216HW,2013-04-07 01:05:00,
2013-04-06 20:08:00,67.0,46.6,29.84,SW,225,4.3,5.6,48,0.00,,,0.00,WUHU216HW,2013-04-07 01:08:00,
2013-04-06 20:09:00,67.0,46.6,29.84,SW,225,4.3,5.6,48,0.00,,,0.00,WUHU216HW,2013-04-07 01:09:00,
2013-04-06 20:14:00,66.6,46.3,29.84,SSW,203,6.3,6.3,48,0.00,,,0.00,WUHU216HW,2013-04-07 01:14:00,
2013-04-06 20:16:00,66.6,46.9,29.84,South,180,3.1,6.3,49,0.00,,,0.00,WUHU216HW,2013-04-07 01:16:00,
2013-04-06 20:17:00,66.6,46.9,29.84,SSW,203,5.6,6.3,49,0.00,,,0.00,WUHU216HW,2013-04-07 01:17:00,
2013-04-06 20:19:00,66.4,46.7,29.84,SSW,203,4.0,6.3,49,0.00,,,0.00,WUHU216HW,2013-04-07 01:19:00,
2013-04-06 20:22:00,66.4,46.7,29.84,South,180,3.1,8.3,49,0.00,,,0.00,WUHU216HW,2013-04-07 01:22:00,
2013-04-06 20:23:00,66.2,46.5,29.84,SW,225,4.5,8.3,49,0.00,,,0.00,WUHU216HW,2013-04-07 01:23:00,
2013-04-06 20:24:00,66.2,46.5,29.84,SW,225,4.5,8.3,49,0.00,,,0.00,WUHU216HW,2013-04-07 01:24:00,
2013-04-06 20:26:00,66.1,47.0,29.84,South,180,2.9,8.3,50,0.00,,,0.00,WUHU216HW,2013-04-07 01:26:00,
2013-04-06 20:27:00,65.9,46.8,29.84,South,180,4.7,8.3,50,0.00,,,0.00,WUHU216HW,2013-04-07 01:27:00,
2013-04-06 20:29:00,65.9,46.8,29.84,South,180,5.4,8.3,50,0.00,,,0.00,WUHU216HW,2013-04-07 01:29:00,
2013-04-06 20:31:00,65.7,47.1,29.84,SSW,203,1.1,5.4,51,0.00,,,0.00,WUHU216HW,2013-04-07 01:31:00,
2013-04-06 20:33:00,65.7,47.1,29.84,SSW,203,4.5,5.4,51,0.00,,,0.00,WUHU216HW,2013-04-07 01:33:00,
2013-04-06 20:34:00,65.7,47.1,29.84,SSW,203,4.5,5.4,51,0.00,,,0.00,WUHU216HW,2013-04-07 01:34:00,
2013-04-06 20:36:00,65.5,46.9,29.85,SSW,203,2.5,5.8,51,0.00,,,0.00,WUHU216HW,2013-04-07 01:36:00,
2013-04-06 20:37:00,65.3,46.7,29.84,SSW,203,1.8,5.8,51,0.00,,,0.00,WUHU216HW,2013-04-07 01:37:00,
2013-04-06 20:39:00,65.2,46.5,29.84,South,180,1.3,5.8,51,0.00,,,0.00,WUHU216HW,2013-04-07 01:39:00,
2013-04-06 20:41:00,65.0,46.9,29.85,South,180,1.3,5.8,52,0.00,,,0.00,WUHU216HW,2013-04-07 01:41:00,
2013-04-06 20:45:00,64.6,46.5,29.85,SSW,203,1.8,5.8,52,0.00,,,0.00,WUHU216HW,2013-04-07 01:45:00,
2013-04-06 20:47:00,64.3,46.6,29.85,South,180,2.7,2.7,53,0.00,,,0.00,WUHU216HW,2013-04-07 01:47:00,
2013-04-06 20:48:00,64.3,46.6,29.85,SSW,203,2.5,2.7,53,0.00,,,0.00,WUHU216HW,2013-04-07 01:48:00,
2013-04-06 20:50:00,64.3,46.6,29.85,SSW,203,2.5,2.7,53,0.00,,,0.00,WUHU216HW,2013-04-07 01:50:00,
2013-04-06 20:51:00,64.1,47.0,29.85,SSE,158,3.6,3.6,54,0.00,,,0.00,WUHU216HW,2013-04-07 01:51:00,
2013-04-06 20:53:00,64.1,47.0,29.85,SW,225,4.5,4.5,54,0.00,,,0.00,WUHU216HW,2013-04-07 01:53:00,
2013-04-06 20:54:00,64.1,47.0,29.85,SSW,203,4.0,4.5,54,0.00,,,0.00,WUHU216HW,2013-04-07 01:54:00,
2013-04-06 20:55:00,64.1,47.0,29.85,SSW,203,4.0,4.5,54,0.00,,,0.00,WUHU216HW,2013-04-07 01:55:00,
2013-04-06 20:56:00,64.1,47.0,29.85,South,180,4.3,4.5,54,0.00,,,0.00,WUHU216HW,2013-04-07 01:56:00,
2013-04-06 20:57:00,64.1,47.0,29.85,South,180,3.1,4.5,54,0.00,,,0.00,WUHU216HW,2013-04-07 01:57:00,
2013-04-06 20:59:00,64.1,47.0,29.86,SW,225,3.8,4.5,54,0.00,,,0.00,WUHU216HW,2013-04-07 01:59:00,
2013-04-06 21:00:00,64.1,47.0,29.86,SW,225,3.8,4.5,54,0.00,,,0.00,WUHU216HW,2013-04-07 02:00:00,
2013-04-06 21:01:00,63.9,46.8,29.86,SSW,203,1.3,4.5,54,0.00,,,0.00,WUHU216HW,2013-04-07 02:01:00,
2013-04-06 21:05:00,63.7,46.6,29.85,SW,225,1.3,4.3,54,0.00,,,0.00,WUHU216HW,2013-04-07 02:05:00,
2013-04-06 21:06:00,63.7,46.6,29.85,SSW,203,1.1,4.3,54,0.00,,,0.00,WUHU216HW,2013-04-07 02:06:00,
2013-04-06 21:07:00,63.7,46.6,29.85,SSW,203,1.8,3.8,54,0.00,,,0.00,WUHU216HW,2013-04-07 02:07:00,
2013-04-06 21:09:00,63.5,47.0,29.86,South,180,1.8,3.8,55,0.00,,,0.00,WUHU216HW,2013-04-07 02:09:00,
2013-04-06 21:10:00,63.5,46.5,29.86,SSW,203,1.1,2.5,54,0.00,,,0.00,WUHU216HW,2013-04-07 02:10:00,
2013-04-06 21:11:00,63.5,46.5,29.86,SSW,203,1.1,2.5,54,0.00,,,0.00,WUHU216HW,2013-04-07 02:11:00,
2013-04-06 21:12:00,63.5,47.0,29.86,SSW,203,2.7,2.7,55,0.00,,,0.00,WUHU216HW,2013-04-07 02:12:00,
2013-04-06 21:13:00,63.5,47.0,29.86,SSE,158,3.4,3.4,55,0.00,,,0.00,WUHU216HW,2013-04-07 02:13:00,
2013-04-06 21:16:00,63.4,46.8,29.86,South,180,1.6,3.4,55,0.00,,,0.00,WUHU216HW,2013-04-07 02:16:00,
2013-04-06 21:17:00,63.4,46.8,29.86,South,180,2.2,3.4,55,0.00,,,0.00,WUHU216HW,2013-04-07 02:17:00,
2013-04-06 21:19:00,63.4,47.4,29.86,South,180,2.5,3.4,56,0.00,,,0.00,WUHU216HW,2013-04-07 02:19:00,
2013-04-06 21:20:00,63.4,47.4,29.86,SSW,203,2.5,3.4,56,0.00,,,0.00,WUHU216HW,2013-04-07 02:20:00,
2013-04-06 21:21:00,63.4,47.4,29.86,SSW,203,2.5,3.4,56,0.00,,,0.00,WUHU216HW,2013-04-07 02:21:00,
2013-04-06 21:23:00,63.2,47.2,29.86,SSW,203,2.5,2.7,56,0.00,,,0.00,WUHU216HW,2013-04-07 02:23:00,
2013-04-06 21:26:00,63.2,47.2,29.86,South,180,2.7,2.7,56,0.00,,,0.00,WUHU216HW,2013-04-07 02:26:00,
2013-04-06 21:27:00,63.2,47.2,29.86,SW,225,1.6,2.9,56,0.00,,,0.00,WUHU216HW,2013-04-07 02:27:00,
2013-04-06 21:29:00,63.2,46.6,29.86,SSW,203,0.7,2.9,55,0.00,,,0.00,WUHU216HW,2013-04-07 02:29:00,
2013-04-06 21:30:00,63.2,46.6,29.86,SSW,203,0.9,2.9,55,0.00,,,0.00,WUHU216HW,2013-04-07 02:30:00,
2013-04-06 21:31:00,63.2,46.6,29.86,SSW,203,0.9,2.9,55,0.00,,,0.00,WUHU216HW,2013-04-07 02:31:00,
2013-04-06 21:32:00,63.0,46.5,29.86,WSW,248,2.2,2.9,55,0.00,,,0.00,WUHU216HW,2013-04-07 02:32:00,
2013-04-06 21:34:00,63.0,46.5,29.86,SSW,203,2.5,2.9,55,0.00,,,0.00,WUHU216HW,2013-04-07 02:34:00,
2013-04-06 21:36:00,63.0,46.5,29.86,WSW,248,2.5,2.9,55,0.00,,,0.00,WUHU216HW,2013-04-07 02:36:00,
2013-04-06 21:39:00,63.0,47.0,29.86,SSE,158,2.9,3.1,56,0.00,,,0.00,WUHU216HW,2013-04-07 02:39:00,
2013-04-06 21:40:00,63.0,47.0,29.86,SSW,203,4.9,4.9,56,0.00,,,0.00,WUHU216HW,2013-04-07 02:40:00,
2013-04-06 21:42:00,63.0,47.0,29.86,SSW,203,4.9,4.9,56,0.00,,,0.00,WUHU216HW,2013-04-07 02:42:00,
2013-04-06 21:43:00,63.0,47.0,29.86,South,180,3.1,4.9,56,0.00,,,0.00,WUHU216HW,2013-04-07 02:43:00,
2013-04-06 21:45:00,62.8,47.4,29.86,South,180,2.5,4.9,57,0.00,,,0.00,WUHU216HW,2013-04-07 02:45:00,
2013-04-06 21:46:00,62.6,47.2,29.86,South,180,3.4,4.9,57,0.00,,,0.00,WUHU216HW,2013-04-07 02:46:00,
2013-04-06 21:47:00,62.6,47.2,29.86,South,180,3.4,4.9,57,0.00,,,0.00,WUHU216HW,2013-04-07 02:47:00,
2013-04-06 21:49:00,62.5,47.0,29.86,South,180,3.4,4.9,57,0.00,,,0.00,WUHU216HW,2013-04-07 02:49:00,
2013-04-06 21:50:00,62.5,47.0,29.86,South,180,3.4,3.4,57,0.00,,,0.00,WUHU216HW,2013-04-07 02:50:00,
2013-04-06 21:52:00,62.5,47.0,29.86,South,180,3.4,3.4,57,0.00,,,0.00,WUHU216HW,2013-04-07 02:52:00,
2013-04-06 21:55:00,62.6,47.2,29.86,SSW,203,4.7,4.7,57,0.00,,,0.00,WUHU216HW,2013-04-07 02:55:00,
2013-04-06 21:57:00,62.6,47.2,29.86,South,180,4.0,4.7,57,0.00,,,0.00,WUHU216HW,2013-04-07 02:57:00,
2013-04-06 22:01:00,62.6,47.2,29.86,SSE,158,3.8,5.4,57,0.00,,,0.00,WUHU216HW,2013-04-07 03:01:00,
2013-04-06 22:02:00,62.6,47.2,29.86,SSW,203,4.0,5.4,57,0.00,,,0.00,WUHU216HW,2013-04-07 03:02:00,
2013-04-06 22:03:00,62.6,47.2,29.86,South,180,5.4,5.4,57,0.00,,,0.00,WUHU216HW,2013-04-07 03:03:00,
2013-04-06 22:05:00,62.6,47.2,29.87,SSE,158,5.1,5.4,57,0.00,,,0.00,WUHU216HW,2013-04-07 03:05:00,
2013-04-06 22:06:00,62.6,47.2,29.86,SSE,158,3.4,5.4,57,0.00,,,0.00,WUHU216HW,2013-04-07 03:06:00,
2013-04-06 22:07:00,62.6,47.2,29.86,SSE,158,3.4,5.4,57,0.00,,,0.00,WUHU216HW,2013-04-07 03:07:00,
2013-04-06 22:08:00,62.8,47.4,29.86,SSE,158,2.9,5.4,57,0.00,,,0.00,WUHU216HW,2013-04-07 03:08:00,
2013-04-06 22:09:00,62.6,47.2,29.87,SSW,203,4.0,5.4,57,0.00,,,0.00,WUHU216HW,2013-04-07 03:09:00,
2013-04-06 22:11:00,62.6,47.2,29.87,SSE,158,3.1,5.6,57,0.00,,,0.00,WUHU216HW,2013-04-07 03:11:00,
2013-04-06 22:12:00,62.6,47.2,29.87,South,180,2.7,5.6,57,0.00,,,0.00,WUHU216HW,2013-04-07 03:12:00,
2013-04-06 22:13:00,62.6,47.6,29.87,South,180,3.4,5.6,58,0.00,,,0.00,WUHU216HW,2013-04-07 03:13:00,
2013-04-06 22:15:00,62.3,47.4,29.87,SSE,158,2.0,5.6,58,0.00,,,0.00,WUHU216HW,2013-04-07 03:15:00,
2013-04-06 22:16:00,62.3,47.4,29.87,SSE,158,3.4,5.6,58,0.00,,,0.00,WUHU216HW,2013-04-07 03:16:00,
2013-04-06 22:18:00,62.3,47.4,29.87,SSE,158,3.4,5.6,58,0.00,,,0.00,WUHU216HW,2013-04-07 03:18:00,
2013-04-06 22:20:00,62.1,47.2,29.87,South,180,3.4,3.8,58,0.00,,,0.00,WUHU216HW,2013-04-07 03:20:00,
2013-04-06 22:21:00,62.1,47.2,29.87,South,180,1.8,3.8,58,0.00,,,0.00,WUHU216HW,2013-04-07 03:21:00,
2013-04-06 22:23:00,61.9,47.4,29.87,SSW,203,2.5,3.8,59,0.00,,,0.00,WUHU216HW,2013-04-07 03:23:00,
2013-04-06 22:24:00,61.9,47.0,29.87,South,180,3.4,3.8,58,0.00,,,0.00,WUHU216HW,2013-04-07 03:24:00,
2013-04-06 22:26:00,61.9,47.4,29.86,South,180,3.1,3.8,59,0.00,,,0.00,WUHU216HW,2013-04-07 03:26:00,
2013-04-06 22:27:00,61.9,47.4,29.87,South,180,2.2,3.4,59,0.00,,,0.00,WUHU216HW,2013-04-07 03:27:00,
2013-04-06 22:28:00,61.9,47.4,29.87,South,180,2.2,3.4,59,0.00,,,0.00,WUHU216HW,2013-04-07 03:28:00,
2013-04-06 22:29:00,61.9,47.4,29.86,South,180,2.9,3.4,59,0.00,,,0.00,WUHU216HW,2013-04-07 03:29:00,
2013-04-06 22:30:00,61.7,47.4,29.87,South,180,2.0,3.4,59,0.00,,,0.00,WUHU216HW,2013-04-07 03:30:00,
2013-04-06 22:32:00,61.7,47.4,29.87,South,180,2.0,3.4,59,0.00,,,0.00,WUHU216HW,2013-04-07 03:32:00,
2013-04-06 22:33:00,61.7,47.4,29.87,South,180,2.0,3.4,59,0.00,,,0.00,WUHU216HW,2013-04-07 03:33:00,
2013-04-06 22:35:00,61.6,47.6,29.87,SSE,158,3.6,3.6,60,0.00,,,0.00,WUHU216HW,2013-04-07 03:35:00,
2013-04-06 22:37:00,61.6,47.6,29.87,South,180,4.5,4.5,60,0.00,,,0.00,WUHU216HW,2013-04-07 03:37:00,
2013-04-06 22:38:00,61.6,47.6,29.87,South,180,4.5,4.5,60,0.00,,,0.00,WUHU216HW,2013-04-07 03:38:00,
2013-04-06 22:39:00,61.6,47.6,29.87,South,180,4.0,5.4,60,0.00,,,0.00,WUHU216HW,2013-04-07 03:39:00,
2013-04-06 22:41:00,61.6,47.6,29.87,SSE,158,4.0,5.4,60,0.00,,,0.00,WUHU216HW,2013-04-07 03:41:00,
2013-04-06 22:43:00,61.6,47.6,29.87,SW,225,3.4,5.4,60,0.00,,,0.00,WUHU216HW,2013-04-07 03:43:00,
2013-04-06 22:44:00,61.6,47.6,29.87,South,180,2.9,5.4,60,0.00,,,0.00,WUHU216HW,2013-04-07 03:44:00,
2013-04-06 22:45:00,61.6,47.6,29.87,South,180,2.9,5.4,60,0.00,,,0.00,WUHU216HW,2013-04-07 03:45:00,
2013-04-06 22:48:00,61.6,47.6,29.87,SSW,203,3.4,5.4,60,0.00,,,0.00,WUHU216HW,2013-04-07 03:48:00,
2013-04-06 22:50:00,61.6,47.6,29.87,South,180,3.1,4.5,60,0.00,,,0.00,WUHU216HW,2013-04-07 03:50:00,
2013-04-06 22:51:00,61.6,47.6,29.87,South,180,3.4,4.5,60,0.00,,,0.00,WUHU216HW,2013-04-07 03:51:00,
2013-04-06 22:53:00,61.6,47.6,29.87,SSW,203,3.6,4.5,60,0.00,,,0.00,WUHU216HW,2013-04-07 03:53:00,
2013-04-06 22:55:00,61.6,47.6,29.87,SSW,203,3.1,4.5,60,0.00,,,0.00,WUHU216HW,2013-04-07 03:55:00,
2013-04-06 22:56:00,61.6,47.6,29.87,SSW,203,2.7,4.5,60,0.00,,,0.00,WUHU216HW,2013-04-07 03:56:00,
2013-04-06 22:59:00,61.6,48.1,29.87,SSW,203,2.9,4.5,61,0.00,,,0.00,WUHU216HW,2013-04-07 03:59:00,
2013-04-06 23:00:00,61.4,47.9,29.87,SSW,203,3.4,3.6,61,0.00,,,0.00,WUHU216HW,2013-04-07 04:00:00,
2013-04-06 23:03:00,61.2,47.7,29.88,South,180,4.0,4.0,61,0.00,,,0.00,WUHU216HW,2013-04-07 04:03:00,
2013-04-06 23:05:00,61.4,47.9,29.88,SSW,203,3.1,4.7,61,0.00,,,0.00,WUHU216HW,2013-04-07 04:05:00,
2013-04-06 23:06:00,61.4,47.9,29.87,SSW,203,3.4,4.7,61,0.00,,,0.00,WUHU216HW,2013-04-07 04:06:00,
2013-04-06 23:07:00,61.6,48.1,29.87,SSW,203,3.4,4.7,61,0.00,,,0.00,WUHU216HW,2013-04-07 04:07:00,
2013-04-06 23:10:00,61.6,48.1,29.88,SSW,203,2.5,4.7,61,0.00,,,0.00,WUHU216HW,2013-04-07 04:10:00,
2013-04-06 23:11:00,61.6,48.1,29.88,SSW,203,2.5,4.7,61,0.00,,,0.00,WUHU216HW,2013-04-07 04:11:00,
2013-04-06 23:12:00,61.6,48.1,29.88,SSW,203,4.0,4.7,61,0.00,,,0.00,WUHU216HW,2013-04-07 04:12:00,
2013-04-06 23:13:00,61.6,48.1,29.88,SSW,203,1.1,4.7,61,0.00,,,0.00,WUHU216HW,2013-04-07 04:13:00,
2013-04-06 23:15:00,61.7,48.3,29.87,SSW,203,3.8,4.3,61,0.00,,,0.00,WUHU216HW,2013-04-07 04:15:00,
2013-04-06 23:16:00,61.7,48.3,29.87,SSW,203,3.8,4.3,61,0.00,,,0.00,WUHU216HW,2013-04-07 04:16:00,
2013-04-06 23:18:00,61.9,48.3,29.87,SSW,203,1.8,4.3,61,0.00,,,0.00,WUHU216HW,2013-04-07 04:18:00,
2013-04-06 23:19:00,61.9,48.3,29.87,South,180,2.9,4.3,61,0.00,,,0.00,WUHU216HW,2013-04-07 04:19:00,
2013-04-06 23:21:00,61.9,48.3,29.87,SSW,203,3.8,4.3,61,0.00,,,0.00,WUHU216HW,2013-04-07 04:21:00,
2013-04-06 23:23:00,61.9,48.3,29.87,SSW,203,2.2,4.3,61,0.00,,,0.00,WUHU216HW,2013-04-07 04:23:00,
2013-04-06 23:24:00,61.7,48.3,29.88,SSW,203,2.0,3.8,61,0.00,,,0.00,WUHU216HW,2013-04-07 04:24:00,
2013-04-06 23:26:00,61.7,48.3,29.87,SSW,203,1.8,3.8,61,0.00,,,0.00,WUHU216HW,2013-04-07 04:26:00,
2013-04-06 23:27:00,61.7,48.3,29.88,SSW,203,3.4,3.8,61,0.00,,,0.00,WUHU216HW,2013-04-07 04:27:00,
2013-04-06 23:28:00,61.7,48.3,29.87,SSW,203,2.5,3.8,61,0.00,,,0.00,WUHU216HW,2013-04-07 04:28:00,
2013-04-06 23:30:00,61.7,48.3,29.88,SSW,203,3.8,3.8,61,0.00,,,0.00,WUHU216HW,2013-04-07 04:30:00,
2013-04-06 23:31:00,61.7,48.3,29.88,South,180,1.8,3.8,61,0.00,,,0.00,WUHU216HW,2013-04-07 04:31:00,
2013-04-06 23:32:00,61.7,48.3,29.88,SSW,203,3.8,3.8,61,0.00,,,0.00,WUHU216HW,2013-04-07 04:32:00,
2013-04-06 23:33:00,61.7,48.6,29.88,South,180,4.3,4.3,62,0.00,,,0.00,WUHU216HW,2013-04-07 04:33:00,
2013-04-06 23:36:00,61.6,48.4,29.88,SSW,203,2.9,4.3,62,0.00,,,0.00,WUHU216HW,2013-04-07 04:36:00,
2013-04-06 23:37:00,61.6,48.4,29.88,SSW,203,2.9,4.3,62,0.00,,,0.00,WUHU216HW,2013-04-07 04:37:00,
2013-04-06 23:39:00,61.6,48.4,29.88,SW,225,4.5,4.5,62,0.00,,,0.00,WUHU216HW,2013-04-07 04:39:00,
2013-04-06 23:41:00,61.6,48.4,29.88,South,180,3.4,4.5,62,0.00,,,0.00,WUHU216HW,2013-04-07 04:41:00,
2013-04-06 23:42:00,61.6,48.4,29.88,South,180,3.4,4.5,62,0.00,,,0.00,WUHU216HW,2013-04-07 04:42:00,
2013-04-06 23:44:00,61.4,48.3,29.88,SSE,158,4.0,4.5,62,0.00,,,0.00,WUHU216HW,2013-04-07 04:44:00,
2013-04-06 23:47:00,61.4,48.7,29.88,SSW,203,5.1,5.1,63,0.00,,,0.00,WUHU216HW,2013-04-07 04:47:00,
2013-04-06 23:48:00,61.4,48.7,29.88,SSW,203,2.9,5.1,63,0.00,,,0.00,WUHU216HW,2013-04-07 04:48:00,
2013-04-06 23:50:00,61.4,48.7,29.88,SSW,203,3.1,5.1,63,0.00,,,0.00,WUHU216HW,2013-04-07 04:50:00,
2013-04-06 23:52:00,61.4,48.7,29.88,South,180,2.2,5.1,63,0.00,,,0.00,WUHU216HW,2013-04-07 04:52:00,
2013-04-06 23:54:00,61.2,48.5,29.88,SSW,203,2.2,5.1,63,0.00,,,0.00,WUHU216HW,2013-04-07 04:54:00,
2013-04-06 23:56:00,61.2,48.5,29.88,SSW,203,2.0,4.0,63,0.00,,,0.00,WUHU216HW,2013-04-07 04:56:00,
2013-04-06 23:57:00,61.2,48.5,29.88,SSW,203,2.0,4.0,63,0.00,,,0.00,WUHU216HW,2013-04-07 04:57:00,
2013-04-06 23:58:00,61.0,48.4,29.88,SSW,203,3.8,3.8,63,0.00,,,0.00,WUHU216HW,2013-04-07 04:58:00,